Wetterdaten: Sonntag, 28.08.2016
Datum Zeit Temp. Aussen Temp. o. S. +5cm Feuchte Auss BlattFeu 1 Luftdruck Regen Sonnenschein Regendauer Solar Windben Empfang
28.08.2016 00:00 25,2 C 18,9 C 18,3 C 74 % 15 lf 1013,8 hPa 2,0 l/m 0 min 2 min 0 W/m 52,3 km/h (7 Bft) 97,87 %
28.08.2016 00:02 24,7 C 18,9 C 17,8 C 74 % 15 lf 1013,8 hPa 0,0 l/m 0 min 2 min 0 W/m 46,0 km/h (6 Bft) 92,68 %
28.08.2016 00:05 23,8 C 18,3 C 17,2 C 76 % 15 lf 1013,9 hPa 1,8 l/m 0 min 2 min 0 W/m 39,7 km/h (6 Bft) 98,59 %
28.08.2016 00:06 23,6 C 18,3 C 17,2 C 77 % 15 lf 1013,9 hPa 0,8 l/m 0 min 1 min 0 W/m 37,7 km/h (5 Bft) 100,00 %
28.08.2016 00:08 23,1 C 18,3 C 17,2 C 79 % 15 lf 1014,0 hPa 2,0 l/m 0 min 2 min 0 W/m 35,6 km/h (5 Bft) 100,00 %
28.08.2016 00:10 22,7 C 18,3 C 17,2 C 80 % 15 lf 1014,1 hPa 1,2 l/m 0 min 2 min 0 W/m 29,3 km/h (5 Bft) 100,00 %
28.08.2016 00:12 22,4 C 18,3 C 17,2 C 81 % 15 lf 1013,9 hPa 0,8 l/m 0 min 2 min 0 W/m 18,8 km/h (3 Bft) 97,87 %
28.08.2016 00:14 22,1 C 18,3 C 17,2 C 82 % 15 lf 1013,7 hPa 0,2 l/m 0 min 2 min 0 W/m 14,6 km/h (3 Bft) 97,83 %
28.08.2016 00:16 21,9 C 18,3 C 17,2 C 82 % 15 lf 1014,0 hPa 0,2 l/m 0 min 2 min 0 W/m 12,6 km/h (3 Bft) 100,00 %
28.08.2016 00:18 21,7 C 18,3 C 17,2 C 83 % 15 lf 1014,4 hPa 0,0 l/m 0 min 2 min 0 W/m 37,7 km/h (5 Bft) 97,87 %
28.08.2016 00:20 21,4 C 18,9 C 17,8 C 84 % 15 lf 1014,2 hPa 0,0 l/m 0 min 2 min 0 W/m 29,3 km/h (5 Bft) 97,87 %
28.08.2016 00:22 21,3 C 18,9 C 17,8 C 84 % 15 lf 1014,0 hPa 0,0 l/m 0 min 2 min 0 W/m 16,7 km/h (3 Bft) 100,00 %
28.08.2016 00:24 21,3 C 18,9 C 17,8 C 85 % 15 lf 1013,6 hPa 0,0 l/m 0 min 2 min 0 W/m 25,1 km/h (4 Bft) 97,87 %
28.08.2016 00:26 21,2 C 18,9 C 17,8 C 86 % 15 lf 1013,3 hPa 0,0 l/m 0 min 2 min 0 W/m 33,5 km/h (5 Bft) 100,00 %
28.08.2016 00:28 21,2 C 18,9 C 17,8 C 86 % 15 lf 1013,2 hPa 0,0 l/m 0 min 2 min 0 W/m 18,8 km/h (3 Bft) 97,22 %
28.08.2016 00:30 21,2 C 19,4 C 18,3 C 87 % 15 lf 1013,1 hPa 0,0 l/m 0 min 2 min 0 W/m 14,6 km/h (3 Bft) 100,00 %
28.08.2016 00:32 21,1 C 19,4 C 18,3 C 87 % 15 lf 1013,0 hPa 0,0 l/m 0 min 2 min 0 W/m 37,7 km/h (5 Bft) 95,74 %
28.08.2016 00:34 21,2 C 19,4 C 18,3 C 88 % 15 lf 1012,8 hPa 0,0 l/m 0 min 2 min 0 W/m 27,2 km/h (4 Bft) 100,00 %
28.08.2016 00:36 21,2 C 19,4 C 18,3 C 88 % 15 lf 1012,9 hPa 0,0 l/m 0 min 2 min 0 W/m 20,9 km/h (4 Bft) 97,87 %
28.08.2016 00:38 21,2 C 19,4 C 18,3 C 89 % 15 lf 1012,8 hPa 0,0 l/m 0 min 2 min 0 W/m 20,9 km/h (4 Bft) 91,49 %
28.08.2016 00:40 21,2 C 19,4 C 18,3 C 89 % 15 lf 1012,7 hPa 0,0 l/m 0 min 2 min 0 W/m 18,8 km/h (3 Bft) 93,48 %
28.08.2016 00:42 21,2 C 19,4 C 18,3 C 89 % 15 lf 1012,7 hPa 0,0 l/m 0 min 2 min 0 W/m 25,1 km/h (4 Bft) 93,62 %
28.08.2016 00:44 21,2 C 19,4 C 18,3 C 89 % 15 lf 1012,7 hPa 0,0 l/m 0 min 0 min 0 W/m 14,6 km/h (3 Bft) 95,74 %
28.08.2016 00:46 21,2 C 19,4 C 18,3 C 89 % 15 lf 1012,8 hPa 0,0 l/m 0 min 0 min 5 W/m 18,8 km/h (3 Bft) 96,30 %
28.08.2016 00:48 21,2 C 19,4 C 18,3 C 89 % 15 lf 1012,8 hPa 0,0 l/m 0 min 2 min 5 W/m 16,7 km/h (3 Bft) 93,48 %
28.08.2016 00:50 21,2 C 19,4 C 18,3 C 89 % 15 lf 1012,7 hPa 0,0 l/m 0 min 2 min 5 W/m 18,8 km/h (3 Bft) 95,74 %
28.08.2016 00:52 21,2 C 19,4 C 18,3 C 89 % 15 lf 1012,6 hPa 0,0 l/m 0 min 2 min 5 W/m 16,7 km/h (3 Bft) 91,49 %
28.08.2016 00:54 21,2 C 19,4 C 18,3 C 88 % 15 lf 1012,5 hPa 0,0 l/m 0 min 2 min 5 W/m 25,1 km/h (4 Bft) 91,49 %
28.08.2016 00:56 21,2 C 19,4 C 18,3 C 88 % 15 lf 1012,5 hPa 0,0 l/m 0 min 2 min 5 W/m 16,7 km/h (3 Bft) 93,62 %
28.08.2016 00:58 21,2 C 19,4 C 18,3 C 88 % 15 lf 1012,6 hPa 0,0 l/m 0 min 2 min 5 W/m 16,7 km/h (3 Bft) 95,65 %
28.08.2016 01:00 21,2 C 19,4 C 17,8 C 87 % 15 lf 1012,6 hPa 0,0 l/m 0 min 0 min 5 W/m 18,8 km/h (3 Bft) 95,74 %
28.08.2016 01:02 21,2 C 19,4 C 18,3 C 87 % 15 lf 1012,3 hPa 0,0 l/m 0 min 2 min 5 W/m 27,2 km/h (4 Bft) 95,74 %
28.08.2016 01:04 21,2 C 19,4 C 18,3 C 86 % 15 lf 1012,4 hPa 0,0 l/m 0 min 2 min 5 W/m 16,7 km/h (3 Bft) 95,74 %
28.08.2016 01:06 21,2 C 19,4 C 18,3 C 86 % 15 lf 1012,3 hPa 0,0 l/m 0 min 2 min 5 W/m 16,7 km/h (3 Bft) 90,00 %
28.08.2016 01:08 21,2 C 19,4 C 17,8 C 86 % 15 lf 1012,3 hPa 0,0 l/m 0 min 0 min 5 W/m 20,9 km/h (4 Bft) 95,74 %
28.08.2016 01:10 21,2 C 20,0 C 17,8 C 85 % 15 lf 1012,2 hPa 0,0 l/m 0 min 2 min 4 W/m 18,8 km/h (3 Bft) 89,13 %
28.08.2016 01:12 21,2 C 19,4 C 17,8 C 85 % 15 lf 1012,3 hPa 0,0 l/m 0 min 2 min 0 W/m 14,6 km/h (3 Bft) 93,62 %
28.08.2016 01:14 21,2 C 19,4 C 17,8 C 84 % 15 lf 1012,5 hPa 0,0 l/m 0 min 0 min 0 W/m 18,8 km/h (3 Bft) 95,74 %
28.08.2016 01:16 21,3 C 19,4 C 17,8 C 84 % 15 lf 1012,8 hPa 0,0 l/m 0 min 0 min 1 W/m 14,6 km/h (3 Bft) 93,62 %
28.08.2016 01:18 21,3 C 20,0 C 18,3 C 84 % 15 lf 1012,8 hPa 0,0 l/m 0 min 0 min 1 W/m 23,0 km/h (4 Bft) 95,74 %
28.08.2016 01:20 21,3 C 19,4 C 18,3 C 83 % 15 lf 1012,7 hPa 0,0 l/m 0 min 0 min 5 W/m 20,9 km/h (4 Bft) 95,74 %
28.08.2016 01:22 21,4 C 19,4 C 18,3 C 82 % 14 lf 1012,7 hPa 0,0 l/m 0 min 2 min 4 W/m 18,8 km/h (3 Bft) 91,30 %
28.08.2016 01:24 21,4 C 19,4 C 18,3 C 82 % 11 lf 1012,8 hPa 0,0 l/m 0 min 0 min 0 W/m 16,7 km/h (3 Bft) 95,74 %
28.08.2016 01:26 21,5 C 20,0 C 18,3 C 81 % 2 lf 1012,8 hPa 0,0 l/m 0 min 0 min 3 W/m 14,6 km/h (3 Bft) 97,87 %
28.08.2016 01:28 21,5 C 19,4 C 18,3 C 81 % 0 lf 1012,8 hPa 0,0 l/m 0 min 0 min 5 W/m 14,6 km/h (3 Bft) 89,36 %
28.08.2016 01:30 21,5 C 19,4 C 18,3 C 80 % 1 lf 1012,7 hPa 0,0 l/m 0 min 0 min 0 W/m 16,7 km/h (3 Bft) 95,74 %
28.08.2016 01:32 21,5 C 19,4 C 18,3 C 80 % 0 lf 1012,6 hPa 0,0 l/m 0 min 0 min 0 W/m 10,5 km/h (2 Bft) 97,92 %
28.08.2016 01:34 21,6 C 20,0 C 17,8 C 80 % 6 lf 1012,4 hPa 0,0 l/m 0 min 2 min 0 W/m 8,4 km/h (2 Bft) 95,65 %
28.08.2016 01:36 21,6 C 20,0 C 17,8 C 80 % 5 lf 1012,3 hPa 0,0 l/m 0 min 2 min 0 W/m 6,3 km/h (2 Bft) 97,92 %
28.08.2016 01:38 21,6 C 19,4 C 17,8 C 81 % 3 lf 1012,2 hPa 0,0 l/m 0 min 0 min 0 W/m 6,3 km/h (2 Bft) 95,74 %
28.08.2016 01:40 21,6 C 20,0 C 17,8 C 82 % 2 lf 1012,1 hPa 0,0 l/m 0 min 2 min 0 W/m 6,3 km/h (2 Bft) 95,74 %
28.08.2016 01:42 21,7 C 20,0 C 17,8 C 83 % 2 lf 1012,0 hPa 0,0 l/m 0 min 2 min 0 W/m 8,4 km/h (2 Bft) 97,87 %
28.08.2016 01:44 21,7 C 19,4 C 17,8 C 84 % 1 lf 1011,8 hPa 0,0 l/m 0 min 2 min 0 W/m 6,3 km/h (2 Bft) 93,62 %
28.08.2016 01:46 21,7 C 19,4 C 18,3 C 84 % 2 lf 1011,3 hPa 0,0 l/m 0 min 2 min 0 W/m 6,3 km/h (2 Bft) 100,00 %
28.08.2016 01:48 21,7 C 19,4 C 18,3 C 84 % 4 lf 1011,3 hPa 0,0 l/m 0 min 2 min 0 W/m 6,3 km/h (2 Bft) 97,83 %
28.08.2016 01:50 21,6 C 19,4 C 18,3 C 84 % 4 lf 1011,4 hPa 0,0 l/m 0 min 2 min 0 W/m 6,3 km/h (2 Bft) 97,87 %
28.08.2016 01:52 21,6 C 19,4 C 18,3 C 84 % 3 lf 1011,4 hPa 0,0 l/m 0 min 2 min 0 W/m 10,5 km/h (2 Bft) 97,87 %
28.08.2016 01:54 21,6 C 19,4 C 18,3 C 84 % 12 lf 1011,5 hPa 0,0 l/m 0 min 2 min 0 W/m 8,4 km/h (2 Bft) 97,87 %
28.08.2016 01:56 21,6 C 19,4 C 18,3 C 84 % 9 lf 1011,4 hPa 0,0 l/m 0 min 0 min 0 W/m 8,4 km/h (2 Bft) 95,74 %
28.08.2016 01:58 21,6 C 19,4 C 18,3 C 85 % 6 lf 1011,4 hPa 0,0 l/m 0 min 0 min 0 W/m 6,3 km/h (2 Bft) 97,87 %
28.08.2016 02:00 21,6 C 19,4 C 17,8 C 85 % 3 lf 1011,4 hPa 0,0 l/m 0 min 0 min 0 W/m 4,2 km/h (1 Bft) 97,83 %
28.08.2016 02:02 21,6 C 19,4 C 17,8 C 85 % 2 lf 1011,4 hPa 0,0 l/m 0 min 0 min 0 W/m 6,3 km/h (2 Bft) 95,74 %
28.08.2016 02:04 21,6 C 19,4 C 18,3 C 85 % 2 lf 1011,3 hPa 0,0 l/m 0 min 0 min 0 W/m 6,3 km/h (2 Bft) 100,00 %
28.08.2016 02:06 21,6 C 19,4 C 18,3 C 85 % 2 lf 1011,3 hPa 0,0 l/m 0 min 0 min 0 W/m 4,2 km/h (1 Bft) 97,14 %
28.08.2016 02:08 21,5 C 19,4 C 18,3 C 85 % 1 lf 1011,3 hPa 0,0 l/m 0 min 0 min 0 W/m 6,3 km/h (2 Bft) 100,00 %
28.08.2016 02:10 21,5 C 19,4 C 18,3 C 85 % 2 lf 1011,3 hPa 0,0 l/m 0 min 0 min 0 W/m 4,2 km/h (1 Bft) 100,00 %
28.08.2016 02:12 21,5 C 19,4 C 18,3 C 85 % 2 lf 1011,3 hPa 0,2 l/m 0 min 0 min 0 W/m 4,2 km/h (1 Bft) 100,00 %
28.08.2016 02:14 21,4 C 19,4 C 18,3 C 85 % 2 lf 1011,3 hPa 0,0 l/m 0 min 0 min 0 W/m 8,4 km/h (2 Bft) 100,00 %
28.08.2016 02:16 21,5 C 19,4 C 17,8 C 86 % 2 lf 1011,3 hPa 0,0 l/m 0 min 0 min 0 W/m 6,3 km/h (2 Bft) 100,00 %
28.08.2016 02:18 21,4 C 19,4 C 17,8 C 86 % 2 lf 1011,2 hPa 0,0 l/m 0 min 0 min 0 W/m 6,3 km/h (2 Bft) 95,74 %
28.08.2016 02:20 21,4 C 19,4 C 17,8 C 86 % 2 lf 1011,3 hPa 0,0 l/m 0 min 0 min 0 W/m 6,3 km/h (2 Bft) 96,61 %
28.08.2016 02:22 21,4 C 19,4 C 17,8 C 86 % 2 lf 1011,3 hPa 0,0 l/m 0 min 0 min 0 W/m 6,3 km/h (2 Bft) 100,00 %
28.08.2016 02:24 21,3 C 19,4 C 17,8 C 86 % 3 lf 1011,3 hPa 0,0 l/m 0 min 0 min 0 W/m 6,3 km/h (2 Bft) 100,00 %
28.08.2016 02:26 21,3 C 20,0 C 17,8 C 87 % 3 lf 1011,3 hPa 0,0 l/m 0 min 0 min 0 W/m 6,3 km/h (2 Bft) 95,65 %
28.08.2016 02:28 21,3 C 20,0 C 17,8 C 87 % 3 lf 1011,3 hPa 0,0 l/m 0 min 0 min 0 W/m 4,2 km/h (1 Bft) 100,00 %
28.08.2016 02:30 21,3 C 20,0 C 17,8 C 87 % 3 lf 1011,4 hPa 0,0 l/m 0 min 0 min 0 W/m 6,3 km/h (2 Bft) 97,87 %
28.08.2016 02:32 21,2 C 20,0 C 17,8 C 88 % 3 lf 1011,4 hPa 0,0 l/m 0 min 0 min 0 W/m 4,2 km/h (1 Bft) 97,87 %
28.08.2016 02:34 21,2 C 19,4 C 17,8 C 88 % 3 lf 1011,5 hPa 0,0 l/m 0 min 0 min 0 W/m 8,4 km/h (2 Bft) 95,74 %
28.08.2016 02:36 21,2 C 19,4 C 17,8 C 88 % 2 lf 1011,6 hPa 0,0 l/m 0 min 0 min 0 W/m 14,6 km/h (3 Bft) 97,87 %
28.08.2016 02:38 21,1 C 19,4 C 17,8 C 87 % 1 lf 1011,6 hPa 0,0 l/m 0 min 0 min 0 W/m 16,7 km/h (3 Bft) 97,83 %
28.08.2016 02:40 21,0 C 19,4 C 17,8 C 86 % 1 lf 1011,6 hPa 0,0 l/m 0 min 0 min 0 W/m 16,7 km/h (3 Bft) 95,74 %
28.08.2016 02:42 20,9 C 19,4 C 17,8 C 86 % 1 lf 1011,6 hPa 0,0 l/m 0 min 0 min 0 W/m 8,4 km/h (2 Bft) 95,74 %
28.08.2016 02:44 20,8 C 19,4 C 17,8 C 86 % 1 lf 1011,7 hPa 0,0 l/m 0 min 0 min 0 W/m 6,3 km/h (2 Bft) 95,74 %
28.08.2016 02:46 20,8 C 19,4 C 17,2 C 86 % 1 lf 1011,6 hPa 0,0 l/m 0 min 0 min 0 W/m 6,3 km/h (2 Bft) 95,74 %
28.08.2016 02:48 20,8 C 19,4 C 17,2 C 86 % 1 lf 1011,7 hPa 0,0 l/m 0 min 0 min 0 W/m 8,4 km/h (2 Bft) 97,87 %
28.08.2016 02:50 20,7 C 19,4 C 17,2 C 85 % 1 lf 1011,7 hPa 0,0 l/m 0 min 0 min 0 W/m 8,4 km/h (2 Bft) 93,48 %
28.08.2016 02:52 20,7 C 19,4 C 17,2 C 85 % 1 lf 1011,7 hPa 0,0 l/m 0 min 0 min 0 W/m 6,3 km/h (2 Bft) 95,74 %
28.08.2016 02:54 20,7 C 19,4 C 17,2 C 85 % 1 lf 1011,6 hPa 0,0 l/m 0 min 0 min 0 W/m 8,4 km/h (2 Bft) 97,87 %
28.08.2016 02:56 20,7 C 19,4 C 17,2 C 84 % 1 lf 1011,7 hPa 0,0 l/m 0 min 0 min 0 W/m 8,4 km/h (2 Bft) 97,87 %
28.08.2016 02:58 20,7 C 20,0 C 17,2 C 84 % 1 lf 1011,8 hPa 0,0 l/m 0 min 0 min 0 W/m 8,4 km/h (2 Bft) 97,87 %
28.08.2016 03:00 20,7 C 20,6 C 17,2 C 84 % 1 lf 1011,8 hPa 0,0 l/m 0 min 0 min 0 W/m 8,4 km/h (2 Bft) 97,87 %
28.08.2016 03:02 20,7 C 21,1 C 17,2 C 84 % 1 lf 1011,8 hPa 0,0 l/m 0 min 0 min 0 W/m 6,3 km/h (2 Bft) 97,83 %
28.08.2016 03:04 20,7 C 21,1 C 17,2 C 84 % 1 lf 1011,8 hPa 0,0 l/m 0 min 0 min 0 W/m 8,4 km/h (2 Bft) 97,87 %
28.08.2016 03:06 20,7 C 21,1 C 17,2 C 84 % 1 lf 1011,8 hPa 0,0 l/m 0 min 0 min 0 W/m 8,4 km/h (2 Bft) 96,61 %
28.08.2016 03:08 20,7 C 21,1 C 17,2 C 84 % 1 lf 1011,8 hPa 0,0 l/m 0 min 0 min 0 W/m 8,4 km/h (2 Bft) 93,62 %
28.08.2016 03:10 20,7 C 21,7 C 17,2 C 83 % 1 lf 1011,8 hPa 0,0 l/m 0 min 0 min 0 W/m 8,4 km/h (2 Bft) 97,83 %
28.08.2016 03:12 20,7 C 21,7 C 17,2 C 83 % 1 lf 1011,9 hPa 0,0 l/m 0 min 0 min 0 W/m 6,3 km/h (2 Bft) 97,87 %
28.08.2016 03:14 20,7 C 21,7 C 17,2 C 82 % 1 lf 1011,8 hPa 0,0 l/m 0 min 0 min 0 W/m 8,4 km/h (2 Bft) 97,87 %
28.08.2016 03:16 20,7 C 21,7 C 17,2 C 82 % 1 lf 1011,8 hPa 0,0 l/m 0 min 0 min 0 W/m 6,3 km/h (2 Bft) 93,62 %
28.08.2016 03:18 20,7 C 21,7 C 17,2 C 82 % 1 lf 1011,8 hPa 0,0 l/m 0 min 0 min 0 W/m 8,4 km/h (2 Bft) 93,62 %
28.08.2016 03:20 20,8 C 21,7 C 17,2 C 82 % 1 lf 1011,8 hPa 0,0 l/m 0 min 0 min 0 W/m 8,4 km/h (2 Bft) 97,87 %
28.08.2016 03:22 20,8 C 21,7 C 17,2 C 82 % 1 lf 1011,9 hPa 0,0 l/m 0 min 0 min 0 W/m 8,4 km/h (2 Bft) 95,65 %
28.08.2016 03:24 20,8 C 21,1 C 17,2 C 82 % 1 lf 1011,9 hPa 0,0 l/m 0 min 0 min 0 W/m 8,4 km/h (2 Bft) 93,62 %
28.08.2016 03:26 20,8 C 21,1 C 17,2 C 82 % 1 lf 1011,8 hPa 0,0 l/m 0 min 0 min 0 W/m 6,3 km/h (2 Bft) 93,62 %
28.08.2016 03:28 20,9 C 21,1 C 17,2 C 82 % 1 lf 1011,9 hPa 0,0 l/m 0 min 0 min 0 W/m 6,3 km/h (2 Bft) 89,36 %
28.08.2016 03:30 20,9 C 20,6 C 17,2 C 82 % 1 lf 1011,9 hPa 0,0 l/m 0 min 0 min 0 W/m 6,3 km/h (2 Bft) 91,49 %
28.08.2016 03:32 20,9 C 20,6 C 16,7 C 82 % 1 lf 1011,9 hPa 0,0 l/m 0 min 0 min 0 W/m 6,3 km/h (2 Bft) 93,62 %
28.08.2016 03:34 20,9 C 20,6 C 16,7 C 83 % 1 lf 1011,9 hPa 0,0 l/m 0 min 0 min 0 W/m 8,4 km/h (2 Bft) 93,48 %
28.08.2016 03:36 20,9 C 20,6 C 17,2 C 83 % 1 lf 1011,9 hPa 0,0 l/m 0 min 0 min 0 W/m 10,5 km/h (2 Bft) 94,29 %
28.08.2016 03:38 20,9 C 20,6 C 17,2 C 82 % 1 lf 1012,0 hPa 0,0 l/m 0 min 0 min 0 W/m 8,4 km/h (2 Bft) 93,62 %
28.08.2016 03:40 20,9 C 20,6 C 17,2 C 82 % 1 lf 1012,0 hPa 0,0 l/m 0 min 0 min 0 W/m 6,3 km/h (2 Bft) 95,74 %
28.08.2016 03:42 20,9 C 20,6 C 17,2 C 83 % 1 lf 1012,1 hPa 0,0 l/m 0 min 0 min 0 W/m 10,5 km/h (2 Bft) 93,62 %
28.08.2016 03:44 20,9 C 21,1 C 17,2 C 82 % 1 lf 1012,1 hPa 0,0 l/m 0 min 0 min 0 W/m 10,5 km/h (2 Bft) 91,49 %
28.08.2016 03:46 20,8 C 21,1 C 17,2 C 82 % 1 lf 1012,1 hPa 0,0 l/m 0 min 0 min 0 W/m 8,4 km/h (2 Bft) 93,62 %
28.08.2016 03:48 20,8 C 21,1 C 17,2 C 82 % 1 lf 1012,1 hPa 0,0 l/m 0 min 0 min 0 W/m 6,3 km/h (2 Bft) 91,30 %
28.08.2016 03:50 20,8 C 21,1 C 17,2 C 82 % 1 lf 1012,1 hPa 0,0 l/m 0 min 0 min 0 W/m 6,3 km/h (2 Bft) 89,36 %
28.08.2016 03:52 20,8 C 21,1 C 16,7 C 82 % 1 lf 1012,0 hPa 0,0 l/m 0 min 0 min 0 W/m 6,3 km/h (2 Bft) 91,49 %
28.08.2016 03:54 20,8 C 20,6 C 16,7 C 82 % 1 lf 1012,1 hPa 0,0 l/m 0 min 0 min 0 W/m 4,2 km/h (1 Bft) 91,49 %
28.08.2016 03:56 20,8 C 20,6 C 16,7 C 82 % 1 lf 1012,0 hPa 0,0 l/m 0 min 0 min 0 W/m 4,2 km/h (1 Bft) 95,74 %
28.08.2016 03:58 20,8 C 20,6 C 16,7 C 82 % 1 lf 1012,0 hPa 0,0 l/m 0 min 0 min 0 W/m 4,2 km/h (1 Bft) 93,62 %
28.08.2016 04:00 20,8 C 20,6 C 16,7 C 83 % 1 lf 1011,9 hPa 0,0 l/m 0 min 0 min 0 W/m 6,3 km/h (2 Bft) 93,48 %
28.08.2016 04:05 20,8 C 20,6 C 16,7 C 82 % 1 lf 1011,8 hPa 0,0 l/m 0 min 0 min 0 W/m 6,3 km/h (2 Bft) 98,55 %
28.08.2016 04:06 20,8 C 20,6 C 16,7 C 82 % 1 lf 1011,8 hPa 0,0 l/m 0 min 0 min 0 W/m 6,3 km/h (2 Bft) 100,00 %
28.08.2016 04:08 20,8 C 20,6 C 16,7 C 82 % 1 lf 1011,6 hPa 0,0 l/m 0 min 0 min 0 W/m 8,4 km/h (2 Bft) 95,74 %
28.08.2016 04:10 20,8 C 20,6 C 16,7 C 83 % 1 lf 1011,6 hPa 0,0 l/m 0 min 0 min 0 W/m 8,4 km/h (2 Bft) 97,87 %
28.08.2016 04:12 20,7 C 20,6 C 16,7 C 83 % 1 lf 1011,7 hPa 0,0 l/m 0 min 0 min 0 W/m 6,3 km/h (2 Bft) 100,00 %
28.08.2016 04:14 20,7 C 20,6 C 16,7 C 83 % 1 lf 1011,7 hPa 0,0 l/m 0 min 0 min 0 W/m 6,3 km/h (2 Bft) 97,87 %
28.08.2016 04:16 20,7 C 20,0 C 16,7 C 83 % 1 lf 1011,7 hPa 0,0 l/m 0 min 0 min 0 W/m 6,3 km/h (2 Bft) 95,74 %
28.08.2016 04:18 20,7 C 20,0 C 16,7 C 83 % 1 lf 1011,7 hPa 0,0 l/m 0 min 0 min 0 W/m 6,3 km/h (2 Bft) 97,87 %
28.08.2016 04:20 20,7 C 20,0 C 16,7 C 83 % 1 lf 1011,7 hPa 0,0 l/m 0 min 0 min 0 W/m 6,3 km/h (2 Bft) 96,55 %
28.08.2016 04:22 20,7 C 20,0 C 16,7 C 83 % 1 lf 1011,7 hPa 0,0 l/m 0 min 0 min 0 W/m 4,2 km/h (1 Bft) 97,22 %
28.08.2016 04:24 20,6 C 20,0 C 16,7 C 83 % 1 lf 1011,8 hPa 0,0 l/m 0 min 0 min 0 W/m 6,3 km/h (2 Bft) 97,83 %
28.08.2016 04:26 20,6 C 20,0 C 16,7 C 84 % 1 lf 1011,7 hPa 0,0 l/m 0 min 0 min 0 W/m 6,3 km/h (2 Bft) 95,74 %
28.08.2016 04:28 20,6 C 20,0 C 16,7 C 83 % 1 lf 1011,7 hPa 0,0 l/m 0 min 0 min 0 W/m 6,3 km/h (2 Bft) 95,74 %
28.08.2016 04:30 20,6 C 20,0 C 16,7 C 83 % 1 lf 1011,7 hPa 0,0 l/m 0 min 0 min 0 W/m 6,3 km/h (2 Bft) 100,00 %
28.08.2016 04:32 20,5 C 20,0 C 16,7 C 84 % 1 lf 1011,7 hPa 0,0 l/m 0 min 0 min 0 W/m 6,3 km/h (2 Bft) 95,74 %
28.08.2016 04:34 20,5 C 20,0 C 16,7 C 84 % 1 lf 1011,6 hPa 0,0 l/m 0 min 0 min 0 W/m 6,3 km/h (2 Bft) 100,00 %
28.08.2016 04:36 20,5 C 20,0 C 16,7 C 84 % 2 lf 1011,6 hPa 0,0 l/m 0 min 0 min 0 W/m 6,3 km/h (2 Bft) 100,00 %
28.08.2016 04:38 20,5 C 20,0 C 16,7 C 84 % 1 lf 1011,6 hPa 0,0 l/m 0 min 0 min 0 W/m 8,4 km/h (2 Bft) 100,00 %
28.08.2016 04:40 20,4 C 20,0 C 16,7 C 84 % 1 lf 1011,6 hPa 0,0 l/m 0 min 0 min 0 W/m 8,4 km/h (2 Bft) 100,00 %
28.08.2016 04:42 20,4 C 20,0 C 16,7 C 84 % 1 lf 1011,5 hPa 0,0 l/m 0 min 0 min 0 W/m 10,5 km/h (2 Bft) 100,00 %
28.08.2016 04:44 20,4 C 20,0 C 16,7 C 84 % 1 lf 1011,6 hPa 0,0 l/m 0 min 0 min 0 W/m 8,4 km/h (2 Bft) 100,00 %
28.08.2016 04:46 20,4 C 20,0 C 16,7 C 84 % 1 lf 1011,5 hPa 0,0 l/m 0 min 0 min 0 W/m 6,3 km/h (2 Bft) 97,83 %
28.08.2016 04:48 20,4 C 20,0 C 16,7 C 84 % 1 lf 1011,5 hPa 0,0 l/m 0 min 0 min 0 W/m 4,2 km/h (1 Bft) 100,00 %
28.08.2016 04:50 20,3 C 20,0 C 16,7 C 84 % 1 lf 1011,5 hPa 0,0 l/m 0 min 0 min 0 W/m 6,3 km/h (2 Bft) 97,87 %
28.08.2016 04:52 20,4 C 20,0 C 16,7 C 84 % 1 lf 1011,5 hPa 0,0 l/m 0 min 0 min 0 W/m 6,3 km/h (2 Bft) 100,00 %
28.08.2016 04:54 20,3 C 20,0 C 16,7 C 84 % 1 lf 1011,5 hPa 0,0 l/m 0 min 0 min 0 W/m 8,4 km/h (2 Bft) 100,00 %
28.08.2016 04:56 20,3 C 20,6 C 16,7 C 84 % 1 lf 1011,4 hPa 0,0 l/m 0 min 0 min 0 W/m 8,4 km/h (2 Bft) 100,00 %
28.08.2016 04:58 20,3 C 20,6 C 16,7 C 84 % 1 lf 1011,5 hPa 0,0 l/m 0 min 0 min 0 W/m 6,3 km/h (2 Bft) 97,87 %
28.08.2016 05:00 20,3 C 20,6 C 16,7 C 84 % 1 lf 1011,4 hPa 0,0 l/m 0 min 0 min 0 W/m 6,3 km/h (2 Bft) 97,83 %
28.08.2016 05:02 20,3 C 20,6 C 16,7 C 84 % 1 lf 1011,4 hPa 0,0 l/m 0 min 0 min 0 W/m 8,4 km/h (2 Bft) 100,00 %
28.08.2016 05:04 20,3 C 20,6 C 16,7 C 84 % 1 lf 1011,4 hPa 0,0 l/m 0 min 0 min 0 W/m 6,3 km/h (2 Bft) 100,00 %
28.08.2016 05:06 20,3 C 20,6 C 16,7 C 84 % 1 lf 1011,4 hPa 0,0 l/m 0 min 0 min 0 W/m 6,3 km/h (2 Bft) 100,00 %
28.08.2016 05:08 20,3 C 20,6 C 16,7 C 84 % 1 lf 1011,4 hPa 0,0 l/m 0 min 0 min 0 W/m 6,3 km/h (2 Bft) 97,87 %
28.08.2016 05:10 20,3 C 20,6 C 16,7 C 84 % 1 lf 1011,4 hPa 0,0 l/m 0 min 0 min 0 W/m 6,3 km/h (2 Bft) 97,83 %
28.08.2016 05:12 20,3 C 20,6 C 16,7 C 84 % 1 lf 1011,4 hPa 0,0 l/m 0 min 0 min 0 W/m 6,3 km/h (2 Bft) 97,87 %
28.08.2016 05:14 20,3 C 20,6 C 16,7 C 84 % 1 lf 1011,5 hPa 0,0 l/m 0 min 0 min 0 W/m 8,4 km/h (2 Bft) 97,87 %
28.08.2016 05:16 20,3 C 20,6 C 16,7 C 84 % 1 lf 1011,5 hPa 0,0 l/m 0 min 0 min 0 W/m 6,3 km/h (2 Bft) 97,87 %
28.08.2016 05:18 20,3 C 20,6 C 16,7 C 84 % 1 lf 1011,4 hPa 0,0 l/m 0 min 0 min 0 W/m 8,4 km/h (2 Bft) 100,00 %
28.08.2016 05:20 20,3 C 20,6 C 16,7 C 84 % 1 lf 1011,4 hPa 0,0 l/m 0 min 0 min 0 W/m 6,3 km/h (2 Bft) 100,00 %
28.08.2016 05:22 20,3 C 20,6 C 16,7 C 84 % 1 lf 1011,4 hPa 0,0 l/m 0 min 0 min 0 W/m 6,3 km/h (2 Bft) 97,83 %
28.08.2016 05:24 20,3 C 20,6 C 16,7 C 84 % 1 lf 1011,4 hPa 0,0 l/m 0 min 0 min 0 W/m 8,4 km/h (2 Bft) 97,87 %
28.08.2016 05:26 20,3 C 20,6 C 16,7 C 84 % 1 lf 1011,4 hPa 0,0 l/m 0 min 0 min 0 W/m 6,3 km/h (2 Bft) 95,74 %
28.08.2016 05:28 20,3 C 20,6 C 16,7 C 84 % 1 lf 1011,4 hPa 0,0 l/m 0 min 0 min 0 W/m 6,3 km/h (2 Bft) 100,00 %
28.08.2016 05:30 20,3 C 20,0 C 16,7 C 84 % 1 lf 1011,4 hPa 0,0 l/m 0 min 0 min 0 W/m 8,4 km/h (2 Bft) 97,87 %
28.08.2016 05:32 20,3 C 20,0 C 16,7 C 85 % 1 lf 1011,5 hPa 0,0 l/m 0 min 0 min 0 W/m 8,4 km/h (2 Bft) 97,87 %
28.08.2016 05:34 20,3 C 20,0 C 16,7 C 85 % 1 lf 1011,3 hPa 0,0 l/m 0 min 0 min 0 W/m 8,4 km/h (2 Bft) 97,83 %
28.08.2016 05:36 20,3 C 20,0 C 16,7 C 85 % 1 lf 1011,4 hPa 0,0 l/m 0 min 0 min 0 W/m 6,3 km/h (2 Bft) 95,74 %
28.08.2016 05:38 20,3 C 20,0 C 16,7 C 85 % 1 lf 1011,4 hPa 0,0 l/m 0 min 0 min 0 W/m 4,2 km/h (1 Bft) 95,74 %
28.08.2016 05:40 20,3 C 20,0 C 16,7 C 85 % 1 lf 1011,4 hPa 0,0 l/m 0 min 0 min 0 W/m 6,3 km/h (2 Bft) 100,00 %
28.08.2016 05:42 20,3 C 19,4 C 16,7 C 85 % 1 lf 1011,5 hPa 0,0 l/m 0 min 0 min 0 W/m 4,2 km/h (1 Bft) 96,23 %
28.08.2016 05:44 20,3 C 19,4 C 16,7 C 85 % 2 lf 1011,4 hPa 0,0 l/m 0 min 0 min 0 W/m 4,2 km/h (1 Bft) 97,87 %
28.08.2016 05:46 20,3 C 19,4 C 16,7 C 85 % 2 lf 1011,4 hPa 0,0 l/m 0 min 0 min 0 W/m 2,1 km/h (1 Bft) 95,74 %
28.08.2016 05:48 20,3 C 18,9 C 16,7 C 85 % 2 lf 1011,5 hPa 0,0 l/m 0 min 0 min 0 W/m 2,1 km/h (1 Bft) 100,00 %
28.08.2016 05:50 20,3 C 18,9 C 16,7 C 85 % 2 lf 1011,5 hPa 0,0 l/m 0 min 0 min 0 W/m 2,1 km/h (1 Bft) 97,87 %
28.08.2016 05:52 20,3 C 18,9 C 16,7 C 86 % 2 lf 1011,4 hPa 0,0 l/m 0 min 0 min 0 W/m 2,1 km/h (1 Bft) 100,00 %
28.08.2016 05:54 20,3 C 18,9 C 16,7 C 86 % 2 lf 1011,4 hPa 0,0 l/m 0 min 0 min 0 W/m 2,1 km/h (1 Bft) 91,49 %
28.08.2016 05:56 20,3 C 18,9 C 16,7 C 86 % 2 lf 1011,4 hPa 0,0 l/m 0 min 0 min 0 W/m 0,0 km/h (0 Bft) 100,00 %
28.08.2016 05:58 20,3 C 18,9 C 16,7 C 86 % 2 lf 1011,4 hPa 0,0 l/m 0 min 0 min 0 W/m 2,1 km/h (1 Bft) 100,00 %
28.08.2016 06:00 20,2 C 18,9 C 16,7 C 86 % 3 lf 1011,4 hPa 0,0 l/m 0 min 0 min 0 W/m 2,1 km/h (1 Bft) 97,87 %
28.08.2016 06:02 20,2 C 18,9 C 16,7 C 86 % 3 lf 1011,4 hPa 0,0 l/m 0 min 0 min 0 W/m 2,1 km/h (1 Bft) 97,92 %
28.08.2016 06:04 20,2 C 18,9 C 16,7 C 86 % 3 lf 1011,3 hPa 0,0 l/m 0 min 0 min 0 W/m 0,0 km/h (0 Bft) 100,00 %
28.08.2016 06:06 20,2 C 18,9 C 16,7 C 86 % 3 lf 1011,3 hPa 0,0 l/m 0 min 0 min 0 W/m 0,0 km/h (0 Bft) 95,74 %
28.08.2016 06:08 20,1 C 18,9 C 16,7 C 86 % 3 lf 1011,3 hPa 0,0 l/m 0 min 0 min 0 W/m 0,0 km/h (0 Bft) 97,87 %
28.08.2016 06:10 20,1 C 18,9 C 16,1 C 86 % 3 lf 1011,4 hPa 0,0 l/m 0 min 0 min 0 W/m 0,0 km/h (0 Bft) 95,74 %
28.08.2016 06:12 20,1 C 18,9 C 16,7 C 86 % 3 lf 1011,3 hPa 0,0 l/m 0 min 0 min 0 W/m 4,2 km/h (1 Bft) 95,74 %
28.08.2016 06:14 20,1 C 18,9 C 16,1 C 87 % 3 lf 1011,3 hPa 0,0 l/m 0 min 0 min 0 W/m 4,2 km/h (1 Bft) 95,65 %
28.08.2016 06:16 20,1 C 18,9 C 16,7 C 87 % 3 lf 1011,3 hPa 0,0 l/m 0 min 0 min 0 W/m 6,3 km/h (2 Bft) 95,74 %
28.08.2016 06:18 20,0 C 18,9 C 16,7 C 87 % 3 lf 1011,3 hPa 0,0 l/m 0 min 0 min 0 W/m 6,3 km/h (2 Bft) 95,74 %
28.08.2016 06:20 19,9 C 18,9 C 16,7 C 87 % 3 lf 1011,3 hPa 0,0 l/m 0 min 0 min 0 W/m 4,2 km/h (1 Bft) 93,62 %
28.08.2016 06:22 19,9 C 18,9 C 16,7 C 88 % 3 lf 1011,3 hPa 0,0 l/m 0 min 0 min 0 W/m 6,3 km/h (2 Bft) 93,62 %
28.08.2016 06:24 19,9 C 18,9 C 16,1 C 88 % 3 lf 1011,2 hPa 0,0 l/m 0 min 0 min 0 W/m 4,2 km/h (1 Bft) 93,62 %
28.08.2016 06:26 19,9 C 18,9 C 16,1 C 88 % 3 lf 1011,3 hPa 0,0 l/m 0 min 0 min 0 W/m 4,2 km/h (1 Bft) 93,48 %
28.08.2016 06:28 19,8 C 18,9 C 16,1 C 88 % 3 lf 1011,3 hPa 0,0 l/m 0 min 0 min 0 W/m 6,3 km/h (2 Bft) 93,62 %
28.08.2016 06:30 19,8 C 18,9 C 16,1 C 88 % 3 lf 1011,3 hPa 0,0 l/m 0 min 0 min 5 W/m 4,2 km/h (1 Bft) 95,74 %
28.08.2016 06:32 19,8 C 18,9 C 16,1 C 88 % 3 lf 1011,4 hPa 0,0 l/m 0 min 0 min 5 W/m 4,2 km/h (1 Bft) 93,75 %
28.08.2016 06:34 19,7 C 18,9 C 16,1 C 88 % 3 lf 1011,3 hPa 0,0 l/m 0 min 0 min 5 W/m 4,2 km/h (1 Bft) 93,62 %
28.08.2016 06:36 19,7 C 18,9 C 16,1 C 88 % 3 lf 1011,3 hPa 0,0 l/m 0 min 0 min 5 W/m 4,2 km/h (1 Bft) 95,92 %
28.08.2016 06:38 19,7 C 18,9 C 16,1 C 88 % 3 lf 1011,3 hPa 0,0 l/m 0 min 0 min 5 W/m 4,2 km/h (1 Bft) 91,49 %
28.08.2016 06:40 19,6 C 18,9 C 16,1 C 88 % 3 lf 1011,3 hPa 0,0 l/m 0 min 0 min 7 W/m 2,1 km/h (1 Bft) 93,62 %
28.08.2016 06:42 19,6 C 18,9 C 16,1 C 88 % 3 lf 1011,3 hPa 0,0 l/m 0 min 0 min 7 W/m 2,1 km/h (1 Bft) 95,74 %
28.08.2016 06:44 19,6 C 18,3 C 16,1 C 88 % 3 lf 1011,3 hPa 0,0 l/m 0 min 0 min 9 W/m 2,1 km/h (1 Bft) 89,36 %
28.08.2016 06:46 19,5 C 18,3 C 16,1 C 88 % 3 lf 1011,3 hPa 0,0 l/m 0 min 0 min 9 W/m 0,0 km/h (0 Bft) 91,49 %
28.08.2016 06:48 19,5 C 18,3 C 16,1 C 88 % 3 lf 1011,3 hPa 0,0 l/m 0 min 0 min 11 W/m 0,0 km/h (0 Bft) 91,30 %
28.08.2016 06:50 19,4 C 18,3 C 16,1 C 88 % 3 lf 1011,3 hPa 0,0 l/m 0 min 0 min 11 W/m 0,0 km/h (0 Bft) 93,62 %
28.08.2016 06:52 19,4 C 18,3 C 16,1 C 88 % 4 lf 1011,3 hPa 0,0 l/m 0 min 0 min 12 W/m 0,0 km/h (0 Bft) 93,62 %
28.08.2016 06:54 19,4 C 18,3 C 16,1 C 89 % 4 lf 1011,3 hPa 0,0 l/m 0 min 0 min 12 W/m 4,2 km/h (1 Bft) 91,49 %
28.08.2016 06:56 19,4 C 18,3 C 16,1 C 89 % 4 lf 1011,3 hPa 0,0 l/m 0 min 0 min 14 W/m 6,3 km/h (2 Bft) 91,49 %
28.08.2016 06:58 19,4 C 18,9 C 16,1 C 89 % 4 lf 1011,4 hPa 0,0 l/m 0 min 0 min 14 W/m 8,4 km/h (2 Bft) 95,74 %
28.08.2016 07:00 19,4 C 18,9 C 16,7 C 89 % 3 lf 1011,4 hPa 0,0 l/m 0 min 0 min 14 W/m 6,3 km/h (2 Bft) 91,30 %
28.08.2016 07:02 19,3 C 18,9 C 16,7 C 89 % 3 lf 1011,5 hPa 0,0 l/m 0 min 0 min 15 W/m 8,4 km/h (2 Bft) 91,49 %
28.08.2016 07:04 19,3 C 18,9 C 16,7 C 89 % 3 lf 1011,4 hPa 0,0 l/m 0 min 0 min 16 W/m 8,4 km/h (2 Bft) 93,62 %
28.08.2016 07:06 19,3 C 18,9 C 16,7 C 90 % 3 lf 1011,4 hPa 0,0 l/m 0 min 0 min 16 W/m 6,3 km/h (2 Bft) 91,49 %
28.08.2016 07:08 19,2 C 19,4 C 16,7 C 90 % 3 lf 1011,4 hPa 0,0 l/m 0 min 0 min 18 W/m 6,3 km/h (2 Bft) 95,74 %
28.08.2016 07:10 19,2 C 19,4 C 16,7 C 90 % 3 lf 1011,3 hPa 0,0 l/m 0 min 0 min 18 W/m 6,3 km/h (2 Bft) 93,62 %
28.08.2016 07:12 19,2 C 19,4 C 16,7 C 90 % 2 lf 1011,4 hPa 0,0 l/m 0 min 0 min 21 W/m 6,3 km/h (2 Bft) 95,65 %
28.08.2016 07:14 19,2 C 19,4 C 16,7 C 90 % 2 lf 1011,4 hPa 0,0 l/m 0 min 0 min 25 W/m 6,3 km/h (2 Bft) 95,74 %
28.08.2016 07:16 19,2 C 19,4 C 16,7 C 90 % 2 lf 1011,4 hPa 0,0 l/m 0 min 0 min 29 W/m 4,2 km/h (1 Bft) 97,87 %
28.08.2016 07:18 19,2 C 19,4 C 16,7 C 90 % 2 lf 1011,4 hPa 0,0 l/m 0 min 0 min 36 W/m 2,1 km/h (1 Bft) 95,74 %
28.08.2016 07:20 19,1 C 19,4 C 16,7 C 90 % 3 lf 1011,3 hPa 0,0 l/m 0 min 0 min 41 W/m 2,1 km/h (1 Bft) 93,62 %
28.08.2016 07:22 19,1 C 19,4 C 16,7 C 90 % 3 lf 1011,3 hPa 0,0 l/m 0 min 0 min 45 W/m 0,0 km/h (0 Bft) 93,62 %
28.08.2016 07:24 19,1 C 19,4 C 16,7 C 90 % 3 lf 1011,3 hPa 0,0 l/m 2 min 0 min 50 W/m 0,0 km/h (0 Bft) 95,65 %
28.08.2016 07:26 19,1 C 18,9 C 16,7 C 90 % 3 lf 1011,3 hPa 0,0 l/m 2 min 0 min 53 W/m 0,0 km/h (0 Bft) 95,74 %
28.08.2016 07:28 19,1 C 18,9 C 16,7 C 90 % 3 lf 1011,3 hPa 0,0 l/m 2 min 0 min 57 W/m 0,0 km/h (0 Bft) 91,49 %
28.08.2016 07:30 19,2 C 18,9 C 16,7 C 90 % 3 lf 1011,3 hPa 0,0 l/m 2 min 0 min 62 W/m 2,1 km/h (1 Bft) 97,87 %
28.08.2016 07:32 19,2 C 19,4 C 16,7 C 91 % 3 lf 1011,3 hPa 0,0 l/m 2 min 0 min 67 W/m 4,2 km/h (1 Bft) 95,74 %
28.08.2016 07:34 19,2 C 19,4 C 16,7 C 91 % 3 lf 1011,3 hPa 0,0 l/m 2 min 0 min 71 W/m 4,2 km/h (1 Bft) 95,74 %
28.08.2016 07:36 19,2 C 19,4 C 16,7 C 91 % 2 lf 1011,2 hPa 0,0 l/m 2 min 0 min 76 W/m 2,1 km/h (1 Bft) 95,74 %
28.08.2016 07:38 19,2 C 19,4 C 16,7 C 91 % 2 lf 1011,2 hPa 0,0 l/m 2 min 0 min 81 W/m 2,1 km/h (1 Bft) 97,87 %
28.08.2016 07:40 19,2 C 19,4 C 16,7 C 91 % 2 lf 1011,2 hPa 0,0 l/m 2 min 0 min 85 W/m 0,0 km/h (0 Bft) 93,48 %
28.08.2016 07:42 19,2 C 19,4 C 16,7 C 91 % 3 lf 1011,2 hPa 0,0 l/m 2 min 0 min 89 W/m 2,1 km/h (1 Bft) 97,87 %
28.08.2016 07:44 19,2 C 19,4 C 17,2 C 91 % 2 lf 1011,2 hPa 0,0 l/m 2 min 0 min 95 W/m 4,2 km/h (1 Bft) 95,74 %
28.08.2016 07:46 19,2 C 20,0 C 17,2 C 91 % 2 lf 1011,2 hPa 0,0 l/m 2 min 0 min 99 W/m 4,2 km/h (1 Bft) 93,62 %
28.08.2016 07:48 19,2 C 20,0 C 17,2 C 91 % 2 lf 1011,2 hPa 0,0 l/m 2 min 0 min 105 W/m 2,1 km/h (1 Bft) 97,87 %
28.08.2016 07:50 19,2 C 20,0 C 17,2 C 91 % 3 lf 1011,2 hPa 0,0 l/m 2 min 0 min 109 W/m 2,1 km/h (1 Bft) 97,96 %
28.08.2016 07:52 19,2 C 20,0 C 17,2 C 91 % 3 lf 1011,2 hPa 0,0 l/m 2 min 0 min 115 W/m 2,1 km/h (1 Bft) 94,29 %
28.08.2016 07:54 19,2 C 20,0 C 17,2 C 91 % 2 lf 1011,2 hPa 0,0 l/m 2 min 0 min 122 W/m 4,2 km/h (1 Bft) 100,00 %
28.08.2016 07:56 19,2 C 20,0 C 17,2 C 92 % 2 lf 1011,2 hPa 0,0 l/m 2 min 0 min 128 W/m 4,2 km/h (1 Bft) 100,00 %
28.08.2016 07:58 19,3 C 20,6 C 17,2 C 92 % 2 lf 1011,2 hPa 0,0 l/m 2 min 0 min 135 W/m 6,3 km/h (2 Bft) 97,87 %
28.08.2016 08:00 19,3 C 20,6 C 17,2 C 92 % 2 lf 1011,1 hPa 0,0 l/m 2 min 0 min 141 W/m 6,3 km/h (2 Bft) 97,87 %
28.08.2016 08:02 19,3 C 20,6 C 17,8 C 92 % 2 lf 1011,2 hPa 0,0 l/m 2 min 0 min 146 W/m 6,3 km/h (2 Bft) 97,87 %
28.08.2016 08:04 19,3 C 20,6 C 17,8 C 92 % 2 lf 1011,1 hPa 0,0 l/m 2 min 0 min 152 W/m 8,4 km/h (2 Bft) 100,00 %
28.08.2016 08:06 19,4 C 21,1 C 17,8 C 92 % 2 lf 1011,1 hPa 0,0 l/m 2 min 0 min 159 W/m 8,4 km/h (2 Bft) 100,00 %
28.08.2016 08:08 19,4 C 21,1 C 17,8 C 92 % 1 lf 1011,2 hPa 0,0 l/m 2 min 0 min 164 W/m 12,6 km/h (3 Bft) 100,00 %
28.08.2016 08:10 19,4 C 21,1 C 17,8 C 92 % 1 lf 1011,2 hPa 0,0 l/m 2 min 0 min 172 W/m 8,4 km/h (2 Bft) 100,00 %
28.08.2016 08:12 19,5 C 21,1 C 18,3 C 92 % 1 lf 1011,2 hPa 0,0 l/m 2 min 0 min 179 W/m 10,5 km/h (2 Bft) 100,00 %
28.08.2016 08:14 19,5 C 21,1 C 18,3 C 92 % 1 lf 1011,2 hPa 0,0 l/m 2 min 0 min 184 W/m 12,6 km/h (3 Bft) 97,87 %
28.08.2016 08:16 19,6 C 21,1 C 18,3 C 92 % 1 lf 1011,2 hPa 0,0 l/m 2 min 0 min 192 W/m 10,5 km/h (2 Bft) 97,87 %
28.08.2016 08:18 19,7 C 21,1 C 18,3 C 92 % 1 lf 1011,2 hPa 0,0 l/m 2 min 0 min 197 W/m 8,4 km/h (2 Bft) 100,00 %
28.08.2016 08:20 19,7 C 21,7 C 18,3 C 91 % 1 lf 1011,2 hPa 0,0 l/m 2 min 0 min 202 W/m 8,4 km/h (2 Bft) 100,00 %
28.08.2016 08:22 19,8 C 21,7 C 18,3 C 91 % 1 lf 1011,2 hPa 0,0 l/m 2 min 0 min 208 W/m 12,6 km/h (3 Bft) 100,00 %
28.08.2016 08:24 19,9 C 21,7 C 18,3 C 91 % 1 lf 1011,2 hPa 0,0 l/m 2 min 0 min 213 W/m 12,6 km/h (3 Bft) 97,87 %
28.08.2016 08:26 20,0 C 21,7 C 18,9 C 91 % 1 lf 1011,2 hPa 0,0 l/m 2 min 0 min 218 W/m 10,5 km/h (2 Bft) 93,62 %
28.08.2016 08:28 20,1 C 21,7 C 18,9 C 91 % 1 lf 1011,1 hPa 0,0 l/m 2 min 0 min 223 W/m 10,5 km/h (2 Bft) 100,00 %
28.08.2016 08:30 20,2 C 22,2 C 18,9 C 91 % 1 lf 1011,1 hPa 0,0 l/m 2 min 0 min 229 W/m 12,6 km/h (3 Bft) 97,83 %
28.08.2016 08:32 20,2 C 22,2 C 18,9 C 90 % 1 lf 1011,2 hPa 0,0 l/m 2 min 0 min 236 W/m 8,4 km/h (2 Bft) 100,00 %
28.08.2016 08:34 20,3 C 22,2 C 18,9 C 90 % 1 lf 1011,1 hPa 0,0 l/m 2 min 0 min 241 W/m 12,6 km/h (3 Bft) 100,00 %
28.08.2016 08:36 20,4 C 22,2 C 18,9 C 90 % 1 lf 1011,1 hPa 0,0 l/m 2 min 0 min 246 W/m 12,6 km/h (3 Bft) 100,00 %
28.08.2016 08:38 20,6 C 22,2 C 19,4 C 90 % 1 lf 1011,1 hPa 0,0 l/m 2 min 0 min 252 W/m 12,6 km/h (3 Bft) 100,00 %
28.08.2016 08:40 20,7 C 22,2 C 19,4 C 90 % 1 lf 1011,1 hPa 0,0 l/m 2 min 0 min 258 W/m 14,6 km/h (3 Bft) 100,00 %
28.08.2016 08:42 20,7 C 22,8 C 19,4 C 89 % 1 lf 1011,1 hPa 0,0 l/m 2 min 0 min 263 W/m 10,5 km/h (2 Bft) 97,87 %
28.08.2016 08:44 20,8 C 22,8 C 19,4 C 89 % 1 lf 1011,1 hPa 0,0 l/m 2 min 0 min 269 W/m 14,6 km/h (3 Bft) 97,87 %
28.08.2016 08:46 20,9 C 22,8 C 20,0 C 89 % 1 lf 1011,1 hPa 0,0 l/m 2 min 0 min 274 W/m 8,4 km/h (2 Bft) 100,00 %
28.08.2016 08:48 21,1 C 22,8 C 20,0 C 89 % 1 lf 1011,1 hPa 0,0 l/m 2 min 0 min 279 W/m 10,5 km/h (2 Bft) 97,87 %
28.08.2016 08:50 21,2 C 23,3 C 20,0 C 89 % 1 lf 1011,1 hPa 0,0 l/m 2 min 0 min 284 W/m 10,5 km/h (2 Bft) 100,00 %
28.08.2016 08:52 21,3 C 25,0 C 20,0 C 88 % 1 lf 1011,1 hPa 0,0 l/m 2 min 0 min 291 W/m 10,5 km/h (2 Bft) 97,87 %
28.08.2016 08:54 21,4 C 26,1 C 20,0 C 88 % 1 lf 1011,1 hPa 0,0 l/m 2 min 0 min 297 W/m 10,5 km/h (2 Bft) 100,00 %
28.08.2016 08:56 21,5 C 26,7 C 20,6 C 88 % 1 lf 1011,1 hPa 0,0 l/m 2 min 0 min 303 W/m 12,6 km/h (3 Bft) 100,00 %
28.08.2016 08:58 21,6 C 27,2 C 20,6 C 88 % 1 lf 1011,1 hPa 0,0 l/m 2 min 0 min 308 W/m 14,6 km/h (3 Bft) 95,74 %
28.08.2016 09:00 21,8 C 27,8 C 20,6 C 87 % 0 lf 1011,1 hPa 0,0 l/m 2 min 0 min 313 W/m 16,7 km/h (3 Bft) 95,74 %
28.08.2016 09:02 21,9 C 28,3 C 20,6 C 87 % 0 lf 1011,1 hPa 0,0 l/m 2 min 0 min 318 W/m 10,5 km/h (2 Bft) 95,74 %
28.08.2016 09:04 22,1 C 28,9 C 20,6 C 87 % 0 lf 1011,1 hPa 0,0 l/m 2 min 0 min 324 W/m 10,5 km/h (2 Bft) 97,83 %
28.08.2016 09:06 22,2 C 28,9 C 20,6 C 86 % 0 lf 1011,1 hPa 0,0 l/m 2 min 0 min 329 W/m 8,4 km/h (2 Bft) 95,74 %
28.08.2016 09:08 22,4 C 28,9 C 21,1 C 86 % 0 lf 1011,1 hPa 0,0 l/m 2 min 0 min 335 W/m 10,5 km/h (2 Bft) 97,87 %
28.08.2016 09:10 22,6 C 29,4 C 21,1 C 86 % 0 lf 1011,0 hPa 0,0 l/m 2 min 0 min 339 W/m 10,5 km/h (2 Bft) 91,49 %
28.08.2016 09:12 22,7 C 30,6 C 21,1 C 85 % 0 lf 1011,1 hPa 0,0 l/m 2 min 0 min 346 W/m 12,6 km/h (3 Bft) 93,62 %
28.08.2016 09:14 22,9 C 30,0 C 21,1 C 85 % 0 lf 1011,0 hPa 0,0 l/m 2 min 0 min 351 W/m 10,5 km/h (2 Bft) 97,87 %
28.08.2016 09:16 23,1 C 30,0 C 21,7 C 85 % 0 lf 1011,0 hPa 0,0 l/m 2 min 0 min 357 W/m 8,4 km/h (2 Bft) 95,74 %
28.08.2016 09:18 23,2 C 30,6 C 21,7 C 84 % 0 lf 1011,0 hPa 0,0 l/m 2 min 0 min 362 W/m 8,4 km/h (2 Bft) 95,65 %
28.08.2016 09:20 23,3 C 31,7 C 21,7 C 84 % 0 lf 1011,0 hPa 0,0 l/m 2 min 0 min 367 W/m 10,5 km/h (2 Bft) 95,74 %
28.08.2016 09:22 23,5 C 31,1 C 21,7 C 84 % 0 lf 1011,0 hPa 0,0 l/m 2 min 0 min 371 W/m 12,6 km/h (3 Bft) 93,62 %
28.08.2016 09:24 23,6 C 31,7 C 21,7 C 83 % 0 lf 1010,9 hPa 0,0 l/m 2 min 0 min 378 W/m 14,6 km/h (3 Bft) 95,74 %
28.08.2016 09:26 23,8 C 30,0 C 22,2 C 83 % 0 lf 1011,0 hPa 0,0 l/m 2 min 0 min 384 W/m 14,6 km/h (3 Bft) 97,87 %
28.08.2016 09:28 23,9 C 31,1 C 22,2 C 82 % 0 lf 1011,0 hPa 0,0 l/m 2 min 0 min 390 W/m 12,6 km/h (3 Bft) 91,30 %
28.08.2016 09:30 24,1 C 30,6 C 22,8 C 81 % 0 lf 1010,9 hPa 0,0 l/m 2 min 0 min 394 W/m 10,5 km/h (2 Bft) 95,74 %
28.08.2016 09:32 24,3 C 30,0 C 22,8 C 80 % 0 lf 1010,9 hPa 0,0 l/m 2 min 0 min 399 W/m 12,6 km/h (3 Bft) 95,74 %
28.08.2016 09:34 24,5 C 30,0 C 22,8 C 80 % 0 lf 1010,8 hPa 0,0 l/m 2 min 0 min 406 W/m 14,6 km/h (3 Bft) 91,49 %
28.08.2016 09:36 24,7 C 30,0 C 22,8 C 79 % 0 lf 1010,8 hPa 0,0 l/m 2 min 0 min 411 W/m 10,5 km/h (2 Bft) 93,62 %
28.08.2016 09:38 24,8 C 30,0 C 22,8 C 79 % 0 lf 1010,7 hPa 0,0 l/m 2 min 0 min 416 W/m 10,5 km/h (2 Bft) 93,62 %
28.08.2016 09:40 24,9 C 30,6 C 23,3 C 79 % 0 lf 1010,7 hPa 0,0 l/m 2 min 0 min 421 W/m 12,6 km/h (3 Bft) 91,30 %
28.08.2016 09:42 25,1 C 30,0 C 23,3 C 78 % 0 lf 1010,7 hPa 0,0 l/m 2 min 0 min 426 W/m 12,6 km/h (3 Bft) 93,62 %
28.08.2016 09:44 25,2 C 31,7 C 23,3 C 78 % 0 lf 1010,7 hPa 0,0 l/m 2 min 0 min 434 W/m 14,6 km/h (3 Bft) 89,36 %
28.08.2016 09:46 25,3 C 32,8 C 23,9 C 78 % 0 lf 1010,8 hPa 0,0 l/m 2 min 0 min 441 W/m 16,7 km/h (3 Bft) 93,62 %
28.08.2016 09:48 25,4 C 31,1 C 23,9 C 77 % 0 lf 1010,8 hPa 0,0 l/m 2 min 0 min 446 W/m 12,6 km/h (3 Bft) 93,62 %
28.08.2016 09:50 25,6 C 31,1 C 24,4 C 76 % 0 lf 1010,8 hPa 0,0 l/m 2 min 0 min 450 W/m 10,5 km/h (2 Bft) 91,49 %
28.08.2016 09:52 25,7 C 32,2 C 25,0 C 76 % 0 lf 1010,8 hPa 0,0 l/m 2 min 0 min 457 W/m 14,6 km/h (3 Bft) 93,48 %
28.08.2016 09:54 25,8 C 32,8 C 25,0 C 76 % 0 lf 1010,8 hPa 0,0 l/m 2 min 0 min 464 W/m 10,5 km/h (2 Bft) 95,74 %
28.08.2016 09:56 25,9 C 32,8 C 25,0 C 76 % 0 lf 1010,8 hPa 0,0 l/m 2 min 0 min 470 W/m 10,5 km/h (2 Bft) 93,62 %
28.08.2016 09:58 26,1 C 32,2 C 25,0 C 75 % 0 lf 1010,8 hPa 0,0 l/m 2 min 0 min 475 W/m 12,6 km/h (3 Bft) 93,62 %
28.08.2016 10:00 26,2 C 32,2 C 27,2 C 75 % 0 lf 1010,8 hPa 0,0 l/m 2 min 0 min 480 W/m 14,6 km/h (3 Bft) 93,62 %
28.08.2016 10:02 26,3 C 32,8 C 28,3 C 75 % 0 lf 1010,8 hPa 0,0 l/m 2 min 0 min 485 W/m 12,6 km/h (3 Bft) 93,48 %
28.08.2016 10:04 26,4 C 32,2 C 28,9 C 74 % 0 lf 1010,8 hPa 0,0 l/m 2 min 0 min 489 W/m 16,7 km/h (3 Bft) 93,62 %
28.08.2016 10:06 26,6 C 32,8 C 29,4 C 74 % 0 lf 1010,9 hPa 0,0 l/m 2 min 0 min 490 W/m 12,6 km/h (3 Bft) 93,62 %
28.08.2016 10:08 26,7 C 33,3 C 30,0 C 74 % 0 lf 1010,8 hPa 0,0 l/m 2 min 0 min 495 W/m 12,6 km/h (3 Bft) 95,74 %
28.08.2016 10:10 26,8 C 33,3 C 30,6 C 73 % 0 lf 1010,8 hPa 0,0 l/m 2 min 0 min 502 W/m 10,5 km/h (2 Bft) 93,62 %
28.08.2016 10:12 26,9 C 33,9 C 30,6 C 74 % 0 lf 1010,7 hPa 0,0 l/m 2 min 0 min 505 W/m 8,4 km/h (2 Bft) 93,62 %
28.08.2016 10:14 27,0 C 36,1 C 30,6 C 74 % 0 lf 1010,8 hPa 0,0 l/m 2 min 0 min 504 W/m 10,5 km/h (2 Bft) 93,62 %
28.08.2016 10:16 27,1 C 36,1 C 30,6 C 73 % 0 lf 1010,7 hPa 0,0 l/m 2 min 0 min 508 W/m 16,7 km/h (3 Bft) 95,65 %
28.08.2016 10:18 27,3 C 36,1 C 31,1 C 73 % 0 lf 1010,7 hPa 0,0 l/m 2 min 0 min 512 W/m 10,5 km/h (2 Bft) 93,62 %
28.08.2016 10:20 27,4 C 35,6 C 31,1 C 73 % 0 lf 1010,7 hPa 0,0 l/m 2 min 0 min 521 W/m 6,3 km/h (2 Bft) 91,49 %
28.08.2016 10:22 27,5 C 36,1 C 31,7 C 73 % 0 lf 1010,6 hPa 0,0 l/m 2 min 0 min 532 W/m 8,4 km/h (2 Bft) 93,22 %
28.08.2016 10:24 27,6 C 35,0 C 32,2 C 72 % 0 lf 1010,7 hPa 0,0 l/m 2 min 0 min 536 W/m 10,5 km/h (2 Bft) 95,65 %
28.08.2016 10:26 27,8 C 34,4 C 32,2 C 70 % 0 lf 1010,6 hPa 0,0 l/m 2 min 0 min 541 W/m 12,6 km/h (3 Bft) 93,62 %
28.08.2016 10:28 27,9 C 33,9 C 32,2 C 70 % 0 lf 1010,7 hPa 0,0 l/m 2 min 0 min 544 W/m 16,7 km/h (3 Bft) 95,74 %
28.08.2016 10:30 28,1 C 33,3 C 31,7 C 69 % 0 lf 1010,6 hPa 0,0 l/m 2 min 0 min 548 W/m 16,7 km/h (3 Bft) 93,62 %
28.08.2016 10:32 28,2 C 34,4 C 32,2 C 70 % 0 lf 1010,7 hPa 0,0 l/m 2 min 0 min 552 W/m 12,6 km/h (3 Bft) 95,74 %
28.08.2016 10:34 28,3 C 34,4 C 32,2 C 68 % 0 lf 1010,7 hPa 0,0 l/m 2 min 0 min 556 W/m 14,6 km/h (3 Bft) 95,65 %
28.08.2016 10:36 28,5 C 33,9 C 32,2 C 68 % 0 lf 1010,6 hPa 0,0 l/m 2 min 0 min 559 W/m 14,6 km/h (3 Bft) 97,87 %
28.08.2016 10:38 28,6 C 35,0 C 32,8 C 68 % 0 lf 1010,6 hPa 0,0 l/m 2 min 0 min 563 W/m 10,5 km/h (2 Bft) 97,87 %
28.08.2016 10:40 28,7 C 35,0 C 32,8 C 68 % 0 lf 1010,6 hPa 0,0 l/m 2 min 0 min 563 W/m 18,8 km/h (3 Bft) 100,00 %
28.08.2016 10:42 28,8 C 33,9 C 32,8 C 66 % 0 lf 1010,6 hPa 0,0 l/m 2 min 0 min 569 W/m 16,7 km/h (3 Bft) 93,62 %
28.08.2016 10:44 28,9 C 33,9 C 32,8 C 66 % 0 lf 1010,6 hPa 0,0 l/m 2 min 0 min 571 W/m 16,7 km/h (3 Bft) 100,00 %
28.08.2016 10:46 29,0 C 33,3 C 32,8 C 66 % 0 lf 1010,7 hPa 0,0 l/m 2 min 0 min 575 W/m 18,8 km/h (3 Bft) 97,83 %
28.08.2016 10:48 29,1 C 34,4 C 32,8 C 66 % 0 lf 1010,8 hPa 0,0 l/m 2 min 0 min 580 W/m 14,6 km/h (3 Bft) 100,00 %
28.08.2016 10:50 29,2 C 36,1 C 32,8 C 66 % 0 lf 1010,8 hPa 0,0 l/m 2 min 0 min 582 W/m 10,5 km/h (2 Bft) 100,00 %
28.08.2016 10:52 29,3 C 37,2 C 32,2 C 66 % 0 lf 1010,9 hPa 0,0 l/m 2 min 0 min 582 W/m 12,6 km/h (3 Bft) 100,00 %
28.08.2016 10:54 29,4 C 38,3 C 32,2 C 66 % 0 lf 1010,8 hPa 0,0 l/m 2 min 0 min 584 W/m 10,5 km/h (2 Bft) 100,00 %
28.08.2016 10:56 29,4 C 38,9 C 30,6 C 65 % 0 lf 1010,9 hPa 0,0 l/m 2 min 0 min 590 W/m 14,6 km/h (3 Bft) 100,00 %
28.08.2016 10:58 29,6 C 39,4 C 30,0 C 66 % 0 lf 1010,8 hPa 0,0 l/m 2 min 0 min 594 W/m 14,6 km/h (3 Bft) 95,65 %
28.08.2016 11:00 29,7 C 39,4 C 30,0 C 65 % 0 lf 1010,8 hPa 0,0 l/m 2 min 0 min 595 W/m 10,5 km/h (2 Bft) 97,87 %
28.08.2016 11:02 29,8 C 37,8 C 30,0 C 65 % 0 lf 1010,8 hPa 0,0 l/m 2 min 0 min 601 W/m 14,6 km/h (3 Bft) 97,87 %
28.08.2016 11:04 29,8 C 37,2 C 30,6 C 64 % 0 lf 1010,8 hPa 0,0 l/m 2 min 0 min 603 W/m 16,7 km/h (3 Bft) 95,74 %
28.08.2016 11:06 29,9 C 38,9 C 31,1 C 63 % 0 lf 1010,8 hPa 0,0 l/m 2 min 0 min 606 W/m 12,6 km/h (3 Bft) 100,00 %
28.08.2016 11:08 30,1 C 38,9 C 32,8 C 63 % 0 lf 1010,8 hPa 0,0 l/m 2 min 0 min 611 W/m 10,5 km/h (2 Bft) 100,00 %
28.08.2016 11:10 30,2 C 38,9 C 33,3 C 64 % 0 lf 1010,8 hPa 0,0 l/m 2 min 0 min 614 W/m 25,1 km/h (4 Bft) 97,83 %
28.08.2016 11:12 30,3 C 38,9 C 33,3 C 62 % 0 lf 1010,8 hPa 0,0 l/m 2 min 0 min 616 W/m 20,9 km/h (4 Bft) 97,87 %
28.08.2016 11:14 30,4 C 38,3 C 33,3 C 61 % 0 lf 1010,7 hPa 0,0 l/m 2 min 0 min 620 W/m 16,7 km/h (3 Bft) 100,00 %
28.08.2016 11:16 30,4 C 38,3 C 33,3 C 61 % 0 lf 1010,6 hPa 0,0 l/m 2 min 0 min 622 W/m 20,9 km/h (4 Bft) 93,62 %
28.08.2016 11:18 30,5 C 38,9 C 32,8 C 60 % 0 lf 1010,7 hPa 0,0 l/m 2 min 0 min 625 W/m 20,9 km/h (4 Bft) 97,87 %
28.08.2016 11:20 30,6 C 39,4 C 33,3 C 61 % 0 lf 1010,7 hPa 0,0 l/m 2 min 0 min 630 W/m 14,6 km/h (3 Bft) 100,00 %
28.08.2016 11:22 30,7 C 39,4 C 33,3 C 60 % 0 lf 1010,7 hPa 0,0 l/m 2 min 0 min 634 W/m 25,1 km/h (4 Bft) 97,83 %
28.08.2016 11:24 30,7 C 39,4 C 33,3 C 60 % 0 lf 1010,7 hPa 0,0 l/m 2 min 0 min 636 W/m 27,2 km/h (4 Bft) 97,87 %
28.08.2016 11:26 30,8 C 40,6 C 34,4 C 59 % 0 lf 1010,7 hPa 0,0 l/m 2 min 0 min 637 W/m 16,7 km/h (3 Bft) 97,87 %
28.08.2016 11:28 30,8 C 40,0 C 34,4 C 59 % 0 lf 1010,7 hPa 0,0 l/m 2 min 0 min 638 W/m 16,7 km/h (3 Bft) 97,87 %
28.08.2016 11:30 30,9 C 40,0 C 34,4 C 59 % 0 lf 1010,8 hPa 0,0 l/m 2 min 0 min 644 W/m 20,9 km/h (4 Bft) 95,74 %
28.08.2016 11:32 30,9 C 38,9 C 33,9 C 58 % 0 lf 1010,9 hPa 0,0 l/m 2 min 0 min 648 W/m 20,9 km/h (4 Bft) 93,48 %
28.08.2016 11:34 31,0 C 37,8 C 33,9 C 58 % 0 lf 1010,8 hPa 0,0 l/m 2 min 0 min 653 W/m 29,3 km/h (5 Bft) 95,74 %
28.08.2016 11:36 31,0 C 38,9 C 33,9 C 57 % 0 lf 1010,8 hPa 0,0 l/m 2 min 0 min 656 W/m 18,8 km/h (3 Bft) 93,62 %
28.08.2016 11:38 31,0 C 38,9 C 33,9 C 58 % 0 lf 1010,8 hPa 0,0 l/m 2 min 0 min 657 W/m 23,0 km/h (4 Bft) 95,74 %
28.08.2016 11:40 31,0 C 38,9 C 33,9 C 57 % 0 lf 1010,8 hPa 0,0 l/m 2 min 0 min 659 W/m 23,0 km/h (4 Bft) 93,62 %
28.08.2016 11:42 31,0 C 38,3 C 33,9 C 57 % 0 lf 1010,8 hPa 0,0 l/m 2 min 0 min 665 W/m 25,1 km/h (4 Bft) 93,62 %
28.08.2016 11:44 31,0 C 38,9 C 34,4 C 58 % 0 lf 1010,9 hPa 0,0 l/m 2 min 0 min 673 W/m 23,0 km/h (4 Bft) 93,62 %
28.08.2016 11:46 31,1 C 39,4 C 33,9 C 59 % 0 lf 1010,8 hPa 0,0 l/m 2 min 0 min 678 W/m 18,8 km/h (3 Bft) 95,65 %
28.08.2016 11:48 31,1 C 38,9 C 34,4 C 58 % 0 lf 1010,9 hPa 0,0 l/m 2 min 0 min 682 W/m 20,9 km/h (4 Bft) 95,74 %
28.08.2016 11:50 31,1 C 38,9 C 33,9 C 58 % 0 lf 1011,0 hPa 0,0 l/m 2 min 0 min 684 W/m 37,7 km/h (5 Bft) 87,23 %
28.08.2016 11:52 31,1 C 38,3 C 33,9 C 56 % 0 lf 1010,9 hPa 0,0 l/m 2 min 0 min 684 W/m 37,7 km/h (5 Bft) 97,87 %
28.08.2016 11:54 31,0 C 37,8 C 33,9 C 57 % 0 lf 1011,0 hPa 0,0 l/m 2 min 0 min 688 W/m 35,6 km/h (5 Bft) 95,74 %
28.08.2016 11:56 30,9 C 37,2 C 33,3 C 57 % 0 lf 1011,0 hPa 0,0 l/m 2 min 0 min 689 W/m 35,6 km/h (5 Bft) 97,83 %
28.08.2016 11:58 30,8 C 37,2 C 32,8 C 56 % 0 lf 1011,0 hPa 0,0 l/m 2 min 0 min 689 W/m 33,5 km/h (5 Bft) 93,62 %
28.08.2016 12:00 30,8 C 37,2 C 32,8 C 57 % 0 lf 1011,0 hPa 0,0 l/m 2 min 0 min 689 W/m 20,9 km/h (4 Bft) 95,74 %
28.08.2016 12:02 30,8 C 38,3 C 33,3 C 59 % 0 lf 1011,1 hPa 0,0 l/m 2 min 0 min 692 W/m 18,8 km/h (3 Bft) 97,87 %
28.08.2016 12:06 30,9 C 38,9 C 33,9 C 59 % 0 lf 1011,0 hPa 0,0 l/m 2 min 0 min 687 W/m 29,3 km/h (5 Bft) 97,56 %
28.08.2016 12:08 30,9 C 37,8 C 33,3 C 57 % 0 lf 1011,0 hPa 0,0 l/m 2 min 0 min 682 W/m 31,4 km/h (5 Bft) 91,49 %
28.08.2016 12:10 30,8 C 37,8 C 33,9 C 58 % 0 lf 1011,0 hPa 0,0 l/m 2 min 0 min 684 W/m 20,9 km/h (4 Bft) 95,74 %
28.08.2016 12:12 30,8 C 36,7 C 33,3 C 58 % 0 lf 1011,0 hPa 0,0 l/m 2 min 0 min 698 W/m 33,5 km/h (5 Bft) 97,83 %
28.08.2016 12:14 30,8 C 37,2 C 32,8 C 59 % 0 lf 1011,0 hPa 0,0 l/m 2 min 0 min 698 W/m 27,2 km/h (4 Bft) 95,74 %
28.08.2016 12:16 30,8 C 38,9 C 33,3 C 59 % 0 lf 1011,0 hPa 0,0 l/m 2 min 0 min 702 W/m 18,8 km/h (3 Bft) 100,00 %
28.08.2016 12:18 30,8 C 37,8 C 33,3 C 59 % 0 lf 1011,0 hPa 0,0 l/m 2 min 0 min 708 W/m 29,3 km/h (5 Bft) 97,87 %
28.08.2016 12:20 30,7 C 36,7 C 32,2 C 57 % 0 lf 1011,1 hPa 0,0 l/m 2 min 0 min 717 W/m 35,6 km/h (5 Bft) 100,00 %
28.08.2016 12:22 30,6 C 36,7 C 32,2 C 58 % 0 lf 1011,0 hPa 0,0 l/m 2 min 0 min 734 W/m 35,6 km/h (5 Bft) 97,87 %
28.08.2016 12:24 30,6 C 36,7 C 31,7 C 59 % 0 lf 1011,0 hPa 0,0 l/m 2 min 0 min 754 W/m 35,6 km/h (5 Bft) 97,83 %
28.08.2016 12:26 30,5 C 37,2 C 31,7 C 58 % 0 lf 1011,1 hPa 0,0 l/m 2 min 0 min 793 W/m 39,7 km/h (6 Bft) 100,00 %
28.08.2016 12:28 30,4 C 37,8 C 31,1 C 59 % 0 lf 1011,1 hPa 0,0 l/m 2 min 0 min 839 W/m 29,3 km/h (5 Bft) 100,00 %
28.08.2016 12:30 30,4 C 36,1 C 30,6 C 58 % 0 lf 1011,1 hPa 0,0 l/m 2 min 0 min 644 W/m 35,6 km/h (5 Bft) 95,74 %
28.08.2016 12:32 30,4 C 34,4 C 30,0 C 59 % 0 lf 1011,1 hPa 0,0 l/m 2 min 0 min 426 W/m 23,0 km/h (4 Bft) 100,00 %
28.08.2016 12:34 30,3 C 33,9 C 29,4 C 60 % 0 lf 1011,2 hPa 0,0 l/m 0 min 0 min 306 W/m 33,5 km/h (5 Bft) 97,87 %
28.08.2016 12:36 30,2 C 32,8 C 28,9 C 60 % 0 lf 1011,2 hPa 0,0 l/m 0 min 0 min 309 W/m 25,1 km/h (4 Bft) 100,00 %
28.08.2016 12:38 30,1 C 33,9 C 28,9 C 61 % 0 lf 1011,2 hPa 0,0 l/m 2 min 0 min 399 W/m 23,0 km/h (4 Bft) 100,00 %
28.08.2016 12:40 30,0 C 35,0 C 29,4 C 62 % 0 lf 1011,3 hPa 0,0 l/m 2 min 0 min 469 W/m 27,2 km/h (4 Bft) 100,00 %
28.08.2016 12:42 30,0 C 35,6 C 30,0 C 62 % 0 lf 1011,3 hPa 0,0 l/m 2 min 0 min 752 W/m 41,8 km/h (6 Bft) 100,00 %
28.08.2016 12:44 29,9 C 36,1 C 30,0 C 61 % 0 lf 1011,2 hPa 0,0 l/m 2 min 0 min 865 W/m 33,5 km/h (5 Bft) 97,87 %
28.08.2016 12:46 30,0 C 36,7 C 30,6 C 62 % 0 lf 1011,2 hPa 0,0 l/m 2 min 0 min 856 W/m 27,2 km/h (4 Bft) 100,00 %
28.08.2016 12:48 30,0 C 37,2 C 30,6 C 61 % 0 lf 1011,3 hPa 0,0 l/m 2 min 0 min 808 W/m 25,1 km/h (4 Bft) 100,00 %
28.08.2016 12:50 30,1 C 36,1 C 30,6 C 61 % 0 lf 1011,3 hPa 0,0 l/m 2 min 0 min 742 W/m 33,5 km/h (5 Bft) 97,87 %
28.08.2016 12:52 30,1 C 36,1 C 30,6 C 61 % 0 lf 1011,5 hPa 0,0 l/m 2 min 0 min 796 W/m 35,6 km/h (5 Bft) 93,62 %
28.08.2016 12:54 30,1 C 36,1 C 30,6 C 60 % 0 lf 1011,4 hPa 0,0 l/m 2 min 0 min 773 W/m 31,4 km/h (5 Bft) 97,87 %
28.08.2016 12:56 30,1 C 36,7 C 30,6 C 61 % 0 lf 1011,5 hPa 0,0 l/m 2 min 0 min 840 W/m 35,6 km/h (5 Bft) 100,00 %
28.08.2016 12:58 30,0 C 34,4 C 30,0 C 60 % 0 lf 1011,5 hPa 0,0 l/m 2 min 0 min 768 W/m 35,6 km/h (5 Bft) 95,65 %
28.08.2016 13:00 29,9 C 32,8 C 28,9 C 60 % 0 lf 1011,5 hPa 0,0 l/m 2 min 0 min 364 W/m 37,7 km/h (5 Bft) 93,62 %
28.08.2016 13:02 29,8 C 32,2 C 28,9 C 61 % 0 lf 1011,5 hPa 0,0 l/m 2 min 0 min 366 W/m 29,3 km/h (5 Bft) 97,87 %
28.08.2016 13:04 29,7 C 32,2 C 28,9 C 61 % 0 lf 1011,4 hPa 0,0 l/m 0 min 0 min 350 W/m 27,2 km/h (4 Bft) 93,62 %
28.08.2016 13:06 29,6 C 32,2 C 28,9 C 63 % 0 lf 1011,5 hPa 0,0 l/m 0 min 0 min 346 W/m 31,4 km/h (5 Bft) 97,87 %
28.08.2016 13:08 29,5 C 31,7 C 28,9 C 63 % 0 lf 1011,5 hPa 0,0 l/m 2 min 0 min 416 W/m 29,3 km/h (5 Bft) 97,87 %
28.08.2016 13:10 29,3 C 31,1 C 28,3 C 62 % 0 lf 1011,5 hPa 0,0 l/m 2 min 0 min 401 W/m 27,2 km/h (4 Bft) 95,65 %
28.08.2016 13:12 29,2 C 32,2 C 28,9 C 63 % 0 lf 1011,5 hPa 0,0 l/m 2 min 0 min 418 W/m 25,1 km/h (4 Bft) 93,62 %
28.08.2016 13:14 29,2 C 31,7 C 28,9 C 63 % 0 lf 1011,5 hPa 0,0 l/m 2 min 0 min 420 W/m 20,9 km/h (4 Bft) 91,49 %
28.08.2016 13:16 29,1 C 32,2 C 28,9 C 64 % 0 lf 1011,6 hPa 0,0 l/m 0 min 0 min 345 W/m 29,3 km/h (5 Bft) 89,36 %
28.08.2016 13:18 29,0 C 32,8 C 28,9 C 64 % 0 lf 1011,7 hPa 0,0 l/m 0 min 0 min 345 W/m 25,1 km/h (4 Bft) 93,62 %
28.08.2016 13:20 29,0 C 33,9 C 29,4 C 65 % 0 lf 1011,6 hPa 0,0 l/m 2 min 0 min 890 W/m 31,4 km/h (5 Bft) 93,62 %
28.08.2016 13:22 29,1 C 35,6 C 29,4 C 65 % 0 lf 1011,6 hPa 0,0 l/m 2 min 0 min 939 W/m 35,6 km/h (5 Bft) 89,13 %
28.08.2016 13:24 29,1 C 35,6 C 30,0 C 66 % 0 lf 1011,7 hPa 0,0 l/m 2 min 0 min 940 W/m 27,2 km/h (4 Bft) 93,62 %
28.08.2016 13:26 29,2 C 35,0 C 30,0 C 66 % 0 lf 1011,7 hPa 0,0 l/m 2 min 0 min 892 W/m 31,4 km/h (5 Bft) 93,62 %
28.08.2016 13:28 29,2 C 33,9 C 28,9 C 65 % 0 lf 1011,7 hPa 0,0 l/m 0 min 0 min 339 W/m 31,4 km/h (5 Bft) 93,62 %
28.08.2016 13:30 29,2 C 33,3 C 28,9 C 66 % 0 lf 1011,8 hPa 0,0 l/m 2 min 0 min 416 W/m 33,5 km/h (5 Bft) 93,62 %
28.08.2016 13:32 29,2 C 33,3 C 28,9 C 66 % 0 lf 1011,9 hPa 0,0 l/m 2 min 0 min 411 W/m 29,3 km/h (5 Bft) 91,49 %
28.08.2016 13:34 29,1 C 33,3 C 28,9 C 66 % 0 lf 1011,8 hPa 0,0 l/m 2 min 0 min 424 W/m 29,3 km/h (5 Bft) 93,48 %
28.08.2016 13:36 29,1 C 32,8 C 28,9 C 66 % 0 lf 1011,9 hPa 0,0 l/m 2 min 0 min 424 W/m 29,3 km/h (5 Bft) 93,62 %
28.08.2016 13:38 29,0 C 32,8 C 28,9 C 66 % 0 lf 1011,8 hPa 0,0 l/m 2 min 0 min 634 W/m 27,2 km/h (4 Bft) 93,62 %
28.08.2016 13:40 28,9 C 32,2 C 28,9 C 66 % 0 lf 1011,9 hPa 0,0 l/m 2 min 0 min 512 W/m 20,9 km/h (4 Bft) 93,62 %
28.08.2016 13:42 28,8 C 32,2 C 28,9 C 66 % 0 lf 1012,0 hPa 0,0 l/m 0 min 0 min 348 W/m 23,0 km/h (4 Bft) 95,74 %
28.08.2016 13:44 28,8 C 31,7 C 28,9 C 67 % 0 lf 1012,0 hPa 0,0 l/m 2 min 0 min 382 W/m 25,1 km/h (4 Bft) 91,49 %
28.08.2016 13:46 28,7 C 31,7 C 28,9 C 67 % 0 lf 1012,1 hPa 0,0 l/m 2 min 0 min 366 W/m 31,4 km/h (5 Bft) 93,48 %
28.08.2016 13:48 28,7 C 31,1 C 28,3 C 67 % 0 lf 1012,1 hPa 0,0 l/m 0 min 0 min 338 W/m 27,2 km/h (4 Bft) 93,62 %
28.08.2016 13:50 28,6 C 30,6 C 28,3 C 67 % 0 lf 1012,1 hPa 0,0 l/m 0 min 0 min 321 W/m 20,9 km/h (4 Bft) 89,36 %
28.08.2016 13:52 28,6 C 31,1 C 28,3 C 69 % 0 lf 1012,1 hPa 0,0 l/m 0 min 0 min 309 W/m 12,6 km/h (3 Bft) 95,74 %
28.08.2016 13:54 28,5 C 31,1 C 27,8 C 68 % 0 lf 1012,1 hPa 0,0 l/m 0 min 0 min 331 W/m 27,2 km/h (4 Bft) 97,87 %
28.08.2016 13:56 28,4 C 32,2 C 27,8 C 68 % 0 lf 1012,1 hPa 0,0 l/m 2 min 0 min 476 W/m 27,2 km/h (4 Bft) 97,87 %
28.08.2016 13:58 28,4 C 33,9 C 28,3 C 68 % 0 lf 1012,1 hPa 0,0 l/m 2 min 0 min 642 W/m 20,9 km/h (4 Bft) 97,83 %
28.08.2016 14:00 28,4 C 35,0 C 28,9 C 68 % 0 lf 1012,1 hPa 0,0 l/m 2 min 0 min 842 W/m 27,2 km/h (4 Bft) 95,74 %
28.08.2016 14:02 28,4 C 35,0 C 28,9 C 68 % 0 lf 1012,1 hPa 0,0 l/m 2 min 0 min 889 W/m 31,4 km/h (5 Bft) 95,74 %
28.08.2016 14:04 28,5 C 34,4 C 28,9 C 69 % 0 lf 1012,1 hPa 0,0 l/m 2 min 0 min 889 W/m 33,5 km/h (5 Bft) 93,62 %
28.08.2016 14:06 28,5 C 32,8 C 27,8 C 67 % 0 lf 1012,1 hPa 0,0 l/m 2 min 0 min 385 W/m 27,2 km/h (4 Bft) 91,49 %
28.08.2016 14:08 28,4 C 32,8 C 28,3 C 68 % 0 lf 1012,2 hPa 0,0 l/m 0 min 0 min 309 W/m 29,3 km/h (5 Bft) 95,74 %
28.08.2016 14:10 28,4 C 32,8 C 27,8 C 67 % 0 lf 1012,1 hPa 0,0 l/m 0 min 0 min 309 W/m 33,5 km/h (5 Bft) 97,83 %
28.08.2016 14:12 28,4 C 35,0 C 28,3 C 68 % 0 lf 1012,2 hPa 0,0 l/m 2 min 0 min 791 W/m 25,1 km/h (4 Bft) 97,87 %
28.08.2016 14:14 28,5 C 35,6 C 28,9 C 67 % 0 lf 1012,1 hPa 0,0 l/m 2 min 0 min 823 W/m 25,1 km/h (4 Bft) 95,74 %
28.08.2016 14:16 28,6 C 36,7 C 28,9 C 67 % 0 lf 1012,1 hPa 0,0 l/m 2 min 0 min 801 W/m 25,1 km/h (4 Bft) 95,74 %
28.08.2016 14:18 28,6 C 36,1 C 28,3 C 65 % 0 lf 1012,2 hPa 0,0 l/m 2 min 0 min 787 W/m 31,4 km/h (5 Bft) 95,74 %
28.08.2016 14:20 28,7 C 35,6 C 28,3 C 65 % 0 lf 1012,1 hPa 0,0 l/m 2 min 0 min 796 W/m 31,4 km/h (5 Bft) 95,65 %
28.08.2016 14:22 28,7 C 35,6 C 28,3 C 66 % 0 lf 1012,2 hPa 0,0 l/m 2 min 0 min 798 W/m 29,3 km/h (5 Bft) 95,74 %
28.08.2016 14:24 28,8 C 35,0 C 28,3 C 65 % 0 lf 1012,2 hPa 0,0 l/m 2 min 0 min 789 W/m 33,5 km/h (5 Bft) 95,74 %
28.08.2016 14:26 28,7 C 33,3 C 28,3 C 64 % 0 lf 1012,2 hPa 0,0 l/m 2 min 0 min 512 W/m 31,4 km/h (5 Bft) 95,74 %
28.08.2016 14:28 28,7 C 33,9 C 28,3 C 65 % 0 lf 1012,1 hPa 0,0 l/m 2 min 0 min 505 W/m 31,4 km/h (5 Bft) 97,87 %
28.08.2016 14:30 28,7 C 34,4 C 28,3 C 65 % 0 lf 1012,2 hPa 0,0 l/m 2 min 0 min 828 W/m 29,3 km/h (5 Bft) 95,74 %
28.08.2016 14:32 28,7 C 35,6 C 28,9 C 64 % 0 lf 1012,2 hPa 0,0 l/m 2 min 0 min 794 W/m 29,3 km/h (5 Bft) 95,65 %
28.08.2016 14:34 28,7 C 35,0 C 28,3 C 65 % 0 lf 1012,2 hPa 0,0 l/m 2 min 0 min 762 W/m 37,7 km/h (5 Bft) 95,74 %
28.08.2016 14:36 28,7 C 33,3 C 28,3 C 65 % 0 lf 1012,3 hPa 0,0 l/m 2 min 0 min 531 W/m 27,2 km/h (4 Bft) 95,74 %
28.08.2016 14:38 28,7 C 31,7 C 27,8 C 63 % 0 lf 1012,2 hPa 0,0 l/m 0 min 0 min 236 W/m 27,2 km/h (4 Bft) 93,62 %
28.08.2016 14:40 28,6 C 30,6 C 27,2 C 63 % 0 lf 1012,2 hPa 0,0 l/m 0 min 0 min 277 W/m 18,8 km/h (3 Bft) 97,87 %
28.08.2016 14:42 28,6 C 31,1 C 27,8 C 65 % 0 lf 1012,3 hPa 0,0 l/m 0 min 0 min 249 W/m 18,8 km/h (3 Bft) 91,49 %
28.08.2016 14:44 28,5 C 31,7 C 27,8 C 65 % 0 lf 1012,2 hPa 0,0 l/m 0 min 0 min 250 W/m 23,0 km/h (4 Bft) 97,83 %
28.08.2016 14:46 28,4 C 32,2 C 29,4 C 66 % 0 lf 1012,3 hPa 0,0 l/m 0 min 0 min 250 W/m 25,1 km/h (4 Bft) 100,00 %
28.08.2016 14:48 28,4 C 33,9 C 30,6 C 66 % 0 lf 1012,3 hPa 0,0 l/m 2 min 0 min 779 W/m 18,8 km/h (3 Bft) 97,87 %
28.08.2016 14:50 28,4 C 35,0 C 31,7 C 66 % 0 lf 1012,2 hPa 0,0 l/m 2 min 0 min 796 W/m 25,1 km/h (4 Bft) 100,00 %
28.08.2016 14:52 28,5 C 36,1 C 32,8 C 66 % 0 lf 1012,2 hPa 0,0 l/m 2 min 0 min 741 W/m 18,8 km/h (3 Bft) 100,00 %
28.08.2016 14:54 28,6 C 35,6 C 33,3 C 66 % 0 lf 1012,2 hPa 0,0 l/m 2 min 0 min 800 W/m 16,7 km/h (3 Bft) 100,00 %
28.08.2016 14:56 28,7 C 35,0 C 33,3 C 66 % 0 lf 1012,1 hPa 0,0 l/m 2 min 0 min 802 W/m 27,2 km/h (4 Bft) 95,74 %
28.08.2016 14:58 28,8 C 36,1 C 33,9 C 66 % 0 lf 1012,1 hPa 0,0 l/m 2 min 0 min 761 W/m 18,8 km/h (3 Bft) 97,83 %
28.08.2016 15:00 28,8 C 36,1 C 33,3 C 66 % 0 lf 1012,1 hPa 0,0 l/m 2 min 0 min 728 W/m 14,6 km/h (3 Bft) 100,00 %
28.08.2016 15:02 28,9 C 36,1 C 33,9 C 66 % 0 lf 1012,0 hPa 0,0 l/m 2 min 0 min 726 W/m 20,9 km/h (4 Bft) 95,74 %
28.08.2016 15:04 28,9 C 36,1 C 33,3 C 65 % 0 lf 1012,0 hPa 0,0 l/m 2 min 0 min 654 W/m 20,9 km/h (4 Bft) 100,00 %
28.08.2016 15:06 29,0 C 36,1 C 33,3 C 64 % 0 lf 1012,0 hPa 0,0 l/m 2 min 0 min 651 W/m 16,7 km/h (3 Bft) 97,87 %
28.08.2016 15:08 29,1 C 35,6 C 33,3 C 63 % 0 lf 1012,1 hPa 0,0 l/m 2 min 0 min 716 W/m 27,2 km/h (4 Bft) 97,83 %
28.08.2016 15:10 29,0 C 35,0 C 32,8 C 62 % 0 lf 1012,1 hPa 0,0 l/m 2 min 0 min 697 W/m 27,2 km/h (4 Bft) 95,74 %
28.08.2016 15:12 29,0 C 35,0 C 32,2 C 63 % 0 lf 1012,0 hPa 0,0 l/m 2 min 0 min 681 W/m 16,7 km/h (3 Bft) 95,74 %
28.08.2016 15:14 29,0 C 34,4 C 32,2 C 63 % 0 lf 1012,0 hPa 0,0 l/m 2 min 0 min 680 W/m 16,7 km/h (3 Bft) 93,62 %
28.08.2016 15:16 29,0 C 35,0 C 32,8 C 64 % 0 lf 1012,1 hPa 0,0 l/m 2 min 0 min 738 W/m 25,1 km/h (4 Bft) 95,74 %
28.08.2016 15:18 29,0 C 36,1 C 32,2 C 63 % 0 lf 1012,1 hPa 0,0 l/m 2 min 0 min 728 W/m 27,2 km/h (4 Bft) 97,87 %
28.08.2016 15:20 29,0 C 34,4 C 30,6 C 63 % 0 lf 1012,1 hPa 0,0 l/m 2 min 0 min 719 W/m 20,9 km/h (4 Bft) 97,83 %
28.08.2016 15:22 28,9 C 31,7 C 28,9 C 62 % 0 lf 1012,2 hPa 0,0 l/m 0 min 0 min 269 W/m 27,2 km/h (4 Bft) 95,74 %
28.08.2016 15:24 28,7 C 31,1 C 27,8 C 62 % 0 lf 1012,3 hPa 0,0 l/m 0 min 0 min 313 W/m 27,2 km/h (4 Bft) 95,74 %
28.08.2016 15:26 28,6 C 31,1 C 27,8 C 63 % 0 lf 1012,3 hPa 0,0 l/m 2 min 0 min 694 W/m 20,9 km/h (4 Bft) 97,87 %
28.08.2016 15:28 28,6 C 33,3 C 28,3 C 64 % 0 lf 1012,3 hPa 0,0 l/m 2 min 0 min 664 W/m 16,7 km/h (3 Bft) 97,87 %
28.08.2016 15:30 28,6 C 33,3 C 28,3 C 64 % 0 lf 1012,4 hPa 0,0 l/m 2 min 0 min 617 W/m 27,2 km/h (4 Bft) 97,87 %
28.08.2016 15:32 28,5 C 33,9 C 28,3 C 64 % 0 lf 1012,2 hPa 0,0 l/m 2 min 0 min 619 W/m 18,8 km/h (3 Bft) 93,48 %
28.08.2016 15:34 28,4 C 31,7 C 27,8 C 63 % 0 lf 1012,2 hPa 0,0 l/m 2 min 0 min 420 W/m 27,2 km/h (4 Bft) 97,87 %
28.08.2016 15:36 28,3 C 30,6 C 27,2 C 64 % 0 lf 1012,3 hPa 0,0 l/m 0 min 0 min 210 W/m 25,1 km/h (4 Bft) 97,87 %
28.08.2016 15:38 28,2 C 30,0 C 26,7 C 64 % 0 lf 1012,4 hPa 0,0 l/m 0 min 0 min 219 W/m 23,0 km/h (4 Bft) 100,00 %
28.08.2016 15:40 28,1 C 30,0 C 27,2 C 64 % 0 lf 1012,4 hPa 0,0 l/m 0 min 0 min 225 W/m 27,2 km/h (4 Bft) 97,87 %
28.08.2016 15:42 28,0 C 30,0 C 27,2 C 65 % 0 lf 1012,4 hPa 0,0 l/m 0 min 0 min 246 W/m 14,6 km/h (3 Bft) 100,00 %
28.08.2016 15:44 27,9 C 30,6 C 27,2 C 65 % 0 lf 1012,4 hPa 0,0 l/m 0 min 0 min 258 W/m 12,6 km/h (3 Bft) 100,00 %
28.08.2016 15:46 27,9 C 32,2 C 27,8 C 66 % 0 lf 1012,3 hPa 0,0 l/m 2 min 0 min 675 W/m 31,4 km/h (5 Bft) 100,00 %
28.08.2016 15:48 27,9 C 32,8 C 28,3 C 65 % 0 lf 1012,3 hPa 0,0 l/m 2 min 0 min 689 W/m 29,3 km/h (5 Bft) 97,87 %
28.08.2016 15:50 27,9 C 32,8 C 28,3 C 64 % 0 lf 1012,3 hPa 0,0 l/m 2 min 0 min 643 W/m 23,0 km/h (4 Bft) 100,00 %
28.08.2016 15:52 27,8 C 31,1 C 27,8 C 64 % 0 lf 1012,4 hPa 0,0 l/m 2 min 0 min 436 W/m 25,1 km/h (4 Bft) 97,87 %
28.08.2016 15:54 27,8 C 31,1 C 27,8 C 65 % 0 lf 1012,4 hPa 0,0 l/m 0 min 0 min 267 W/m 25,1 km/h (4 Bft) 97,87 %
28.08.2016 15:56 27,8 C 32,2 C 28,3 C 65 % 0 lf 1012,4 hPa 0,0 l/m 2 min 0 min 431 W/m 18,8 km/h (3 Bft) 100,00 %
28.08.2016 15:58 27,8 C 32,8 C 28,3 C 64 % 0 lf 1012,4 hPa 0,0 l/m 2 min 0 min 695 W/m 31,4 km/h (5 Bft) 95,74 %
28.08.2016 16:00 27,8 C 33,3 C 28,3 C 64 % 0 lf 1012,4 hPa 0,0 l/m 2 min 0 min 664 W/m 20,9 km/h (4 Bft) 100,00 %
28.08.2016 16:02 27,8 C 32,8 C 27,8 C 62 % 0 lf 1012,5 hPa 0,0 l/m 2 min 0 min 642 W/m 33,5 km/h (5 Bft) 95,74 %
28.08.2016 16:04 27,8 C 32,2 C 27,8 C 62 % 0 lf 1012,4 hPa 0,0 l/m 2 min 0 min 422 W/m 23,0 km/h (4 Bft) 97,87 %
28.08.2016 16:06 27,8 C 30,6 C 26,7 C 60 % 0 lf 1012,5 hPa 0,0 l/m 0 min 0 min 199 W/m 23,0 km/h (4 Bft) 91,30 %
28.08.2016 16:08 27,8 C 31,1 C 27,2 C 62 % 0 lf 1012,5 hPa 0,0 l/m 0 min 0 min 242 W/m 20,9 km/h (4 Bft) 100,00 %
28.08.2016 16:10 27,8 C 32,2 C 27,8 C 63 % 0 lf 1012,5 hPa 0,0 l/m 2 min 0 min 675 W/m 29,3 km/h (5 Bft) 100,00 %
28.08.2016 16:12 27,8 C 33,3 C 27,8 C 63 % 0 lf 1012,4 hPa 0,0 l/m 2 min 0 min 701 W/m 20,9 km/h (4 Bft) 95,74 %
28.08.2016 16:14 27,8 C 34,4 C 28,3 C 64 % 0 lf 1012,4 hPa 0,0 l/m 2 min 0 min 680 W/m 23,0 km/h (4 Bft) 91,49 %
28.08.2016 16:16 27,9 C 34,4 C 28,3 C 64 % 0 lf 1012,4 hPa 0,0 l/m 2 min 0 min 656 W/m 20,9 km/h (4 Bft) 97,87 %
28.08.2016 16:18 28,0 C 34,4 C 28,9 C 64 % 0 lf 1012,5 hPa 0,0 l/m 2 min 0 min 616 W/m 16,7 km/h (3 Bft) 97,83 %
28.08.2016 16:20 28,0 C 33,3 C 28,9 C 63 % 0 lf 1012,5 hPa 0,0 l/m 2 min 0 min 318 W/m 25,1 km/h (4 Bft) 97,87 %
28.08.2016 16:22 28,1 C 32,8 C 28,3 C 64 % 0 lf 1012,6 hPa 0,0 l/m 2 min 0 min 520 W/m 37,7 km/h (5 Bft) 95,74 %
28.08.2016 16:24 28,1 C 33,3 C 28,3 C 62 % 0 lf 1012,6 hPa 0,0 l/m 2 min 0 min 693 W/m 27,2 km/h (4 Bft) 97,87 %
28.08.2016 16:26 28,1 C 32,2 C 27,8 C 61 % 0 lf 1012,5 hPa 0,0 l/m 2 min 0 min 653 W/m 27,2 km/h (4 Bft) 97,87 %
28.08.2016 16:28 28,0 C 30,6 C 27,2 C 60 % 0 lf 1012,5 hPa 0,0 l/m 2 min 0 min 443 W/m 33,5 km/h (5 Bft) 96,30 %
28.08.2016 16:30 27,9 C 31,1 C 27,2 C 60 % 0 lf 1012,6 hPa 0,0 l/m 2 min 0 min 352 W/m 25,1 km/h (4 Bft) 95,74 %
28.08.2016 16:32 27,9 C 31,1 C 27,8 C 61 % 0 lf 1012,5 hPa 0,0 l/m 2 min 0 min 321 W/m 25,1 km/h (4 Bft) 97,87 %
28.08.2016 16:34 27,8 C 30,6 C 27,8 C 61 % 0 lf 1012,5 hPa 0,0 l/m 2 min 0 min 330 W/m 20,9 km/h (4 Bft) 95,74 %
28.08.2016 16:36 27,8 C 31,7 C 27,8 C 60 % 0 lf 1012,6 hPa 0,0 l/m 2 min 0 min 481 W/m 23,0 km/h (4 Bft) 94,00 %
28.08.2016 16:38 27,8 C 31,7 C 27,8 C 59 % 0 lf 1012,5 hPa 0,0 l/m 2 min 0 min 524 W/m 31,4 km/h (5 Bft) 95,65 %
28.08.2016 16:40 27,7 C 30,6 C 27,2 C 59 % 0 lf 1012,5 hPa 0,0 l/m 2 min 0 min 495 W/m 29,3 km/h (5 Bft) 95,74 %
28.08.2016 16:42 27,7 C 30,0 C 27,2 C 59 % 0 lf 1012,6 hPa 0,0 l/m 2 min 0 min 275 W/m 27,2 km/h (4 Bft) 93,62 %
28.08.2016 16:44 27,6 C 30,0 C 26,7 C 60 % 0 lf 1012,5 hPa 0,0 l/m 0 min 0 min 264 W/m 23,0 km/h (4 Bft) 97,87 %
28.08.2016 16:46 27,5 C 30,0 C 26,7 C 60 % 0 lf 1012,6 hPa 0,0 l/m 0 min 0 min 257 W/m 25,1 km/h (4 Bft) 89,36 %
28.08.2016 16:48 27,5 C 31,1 C 27,2 C 61 % 0 lf 1012,6 hPa 0,0 l/m 2 min 0 min 346 W/m 14,6 km/h (3 Bft) 89,36 %
28.08.2016 16:50 27,5 C 32,8 C 27,2 C 61 % 0 lf 1012,6 hPa 0,0 l/m 2 min 0 min 626 W/m 18,8 km/h (3 Bft) 91,30 %
28.08.2016 16:52 27,6 C 33,3 C 27,8 C 62 % 0 lf 1012,5 hPa 0,0 l/m 2 min 0 min 635 W/m 23,0 km/h (4 Bft) 94,59 %
28.08.2016 16:54 27,6 C 33,9 C 27,8 C 62 % 0 lf 1012,5 hPa 0,0 l/m 2 min 0 min 568 W/m 25,1 km/h (4 Bft) 93,48 %
28.08.2016 16:56 27,6 C 33,3 C 27,8 C 62 % 0 lf 1012,4 hPa 0,0 l/m 2 min 0 min 515 W/m 20,9 km/h (4 Bft) 93,62 %
28.08.2016 16:58 27,7 C 32,8 C 27,2 C 61 % 0 lf 1012,5 hPa 0,0 l/m 2 min 0 min 531 W/m 25,1 km/h (4 Bft) 93,62 %
28.08.2016 17:00 27,7 C 32,8 C 26,7 C 60 % 0 lf 1012,5 hPa 0,0 l/m 2 min 0 min 522 W/m 29,3 km/h (5 Bft) 89,36 %
28.08.2016 17:02 27,7 C 32,2 C 26,1 C 60 % 0 lf 1012,5 hPa 0,0 l/m 2 min 0 min 521 W/m 16,7 km/h (3 Bft) 91,49 %
28.08.2016 17:04 27,7 C 31,7 C 26,1 C 61 % 0 lf 1012,4 hPa 0,0 l/m 2 min 0 min 546 W/m 29,3 km/h (5 Bft) 93,48 %
28.08.2016 17:06 27,6 C 30,0 C 26,1 C 60 % 0 lf 1012,5 hPa 0,0 l/m 2 min 0 min 397 W/m 18,8 km/h (3 Bft) 93,62 %
28.08.2016 17:08 27,5 C 28,9 C 25,6 C 59 % 0 lf 1012,6 hPa 0,0 l/m 0 min 0 min 133 W/m 23,0 km/h (4 Bft) 91,49 %
28.08.2016 17:10 27,4 C 29,4 C 25,6 C 60 % 0 lf 1012,6 hPa 0,0 l/m 0 min 0 min 202 W/m 27,2 km/h (4 Bft) 93,62 %
28.08.2016 17:12 27,3 C 28,9 C 25,6 C 61 % 0 lf 1012,5 hPa 0,0 l/m 2 min 0 min 496 W/m 35,6 km/h (5 Bft) 97,87 %
28.08.2016 17:14 27,2 C 28,3 C 25,0 C 61 % 0 lf 1012,5 hPa 0,0 l/m 2 min 0 min 332 W/m 23,0 km/h (4 Bft) 93,62 %
28.08.2016 17:16 27,1 C 28,3 C 25,0 C 62 % 0 lf 1012,6 hPa 0,0 l/m 0 min 0 min 171 W/m 20,9 km/h (4 Bft) 93,62 %
28.08.2016 17:18 27,0 C 29,4 C 25,6 C 64 % 0 lf 1012,7 hPa 0,0 l/m 2 min 0 min 371 W/m 14,6 km/h (3 Bft) 93,48 %
28.08.2016 17:20 26,9 C 30,0 C 25,6 C 63 % 0 lf 1012,8 hPa 0,0 l/m 2 min 0 min 424 W/m 27,2 km/h (4 Bft) 92,45 %
28.08.2016 17:22 26,9 C 30,6 C 25,6 C 62 % 0 lf 1012,8 hPa 0,0 l/m 2 min 0 min 393 W/m 23,0 km/h (4 Bft) 95,74 %
28.08.2016 17:24 26,9 C 31,1 C 25,6 C 63 % 0 lf 1012,9 hPa 0,0 l/m 2 min 0 min 443 W/m 23,0 km/h (4 Bft) 91,49 %
28.08.2016 17:26 26,9 C 30,6 C 25,6 C 61 % 0 lf 1012,9 hPa 0,0 l/m 2 min 0 min 455 W/m 25,1 km/h (4 Bft) 95,12 %
28.08.2016 17:28 26,8 C 28,9 C 25,0 C 61 % 0 lf 1012,9 hPa 0,0 l/m 2 min 0 min 248 W/m 35,6 km/h (5 Bft) 91,30 %
28.08.2016 17:30 26,7 C 29,4 C 25,0 C 61 % 0 lf 1012,9 hPa 0,0 l/m 2 min 0 min 271 W/m 14,6 km/h (3 Bft) 91,49 %
28.08.2016 17:32 26,7 C 30,0 C 25,6 C 62 % 0 lf 1012,9 hPa 0,0 l/m 2 min 0 min 477 W/m 27,2 km/h (4 Bft) 93,62 %
28.08.2016 17:34 26,7 C 30,0 C 25,6 C 62 % 0 lf 1013,0 hPa 0,0 l/m 2 min 0 min 409 W/m 23,0 km/h (4 Bft) 95,74 %
28.08.2016 17:36 26,7 C 30,0 C 25,6 C 61 % 0 lf 1013,0 hPa 0,0 l/m 2 min 0 min 380 W/m 20,9 km/h (4 Bft) 92,86 %
28.08.2016 17:38 26,7 C 30,6 C 25,6 C 62 % 0 lf 1013,0 hPa 0,0 l/m 2 min 0 min 439 W/m 16,7 km/h (3 Bft) 97,83 %
28.08.2016 17:40 26,7 C 30,0 C 25,0 C 61 % 0 lf 1013,0 hPa 0,0 l/m 2 min 0 min 415 W/m 33,5 km/h (5 Bft) 97,87 %
28.08.2016 17:42 26,7 C 29,4 C 25,0 C 62 % 0 lf 1013,1 hPa 0,0 l/m 2 min 0 min 399 W/m 20,9 km/h (4 Bft) 95,74 %
28.08.2016 17:44 26,6 C 28,3 C 25,0 C 61 % 0 lf 1013,2 hPa 0,0 l/m 2 min 0 min 341 W/m 29,3 km/h (5 Bft) 100,00 %
28.08.2016 17:46 26,6 C 28,3 C 24,4 C 61 % 0 lf 1013,1 hPa 0,0 l/m 2 min 0 min 363 W/m 27,2 km/h (4 Bft) 100,00 %
28.08.2016 17:48 26,6 C 27,8 C 25,0 C 61 % 0 lf 1013,2 hPa 0,0 l/m 2 min 0 min 420 W/m 20,9 km/h (4 Bft) 100,00 %
28.08.2016 17:50 26,5 C 27,8 C 24,4 C 61 % 0 lf 1013,2 hPa 0,0 l/m 2 min 0 min 414 W/m 25,1 km/h (4 Bft) 97,83 %
28.08.2016 17:52 26,5 C 27,8 C 24,4 C 62 % 0 lf 1013,2 hPa 0,0 l/m 2 min 0 min 419 W/m 20,9 km/h (4 Bft) 95,74 %
28.08.2016 17:54 26,5 C 27,8 C 25,0 C 61 % 0 lf 1013,2 hPa 0,0 l/m 2 min 0 min 398 W/m 29,3 km/h (5 Bft) 95,74 %
28.08.2016 17:56 26,5 C 27,8 C 24,4 C 61 % 0 lf 1013,3 hPa 0,0 l/m 2 min 0 min 388 W/m 25,1 km/h (4 Bft) 100,00 %
28.08.2016 17:58 26,4 C 27,2 C 24,4 C 60 % 0 lf 1013,3 hPa 0,0 l/m 2 min 0 min 373 W/m 20,9 km/h (4 Bft) 100,00 %
28.08.2016 18:00 26,4 C 27,2 C 24,4 C 61 % 0 lf 1013,2 hPa 0,0 l/m 2 min 0 min 357 W/m 29,3 km/h (5 Bft) 100,00 %
28.08.2016 18:02 26,3 C 27,2 C 24,4 C 60 % 0 lf 1013,2 hPa 0,0 l/m 2 min 0 min 348 W/m 25,1 km/h (4 Bft) 100,00 %
28.08.2016 18:06 26,2 C 27,2 C 23,9 C 60 % 0 lf 1013,3 hPa 0,0 l/m 2 min 0 min 332 W/m 20,9 km/h (4 Bft) 98,95 %
28.08.2016 18:08 26,2 C 27,2 C 23,9 C 61 % 0 lf 1013,3 hPa 0,0 l/m 2 min 0 min 308 W/m 20,9 km/h (4 Bft) 100,00 %
28.08.2016 18:10 26,1 C 26,7 C 23,9 C 60 % 0 lf 1013,3 hPa 0,0 l/m 2 min 0 min 309 W/m 20,9 km/h (4 Bft) 100,00 %
28.08.2016 18:12 26,1 C 26,7 C 23,3 C 60 % 0 lf 1013,3 hPa 0,0 l/m 2 min 0 min 312 W/m 31,4 km/h (5 Bft) 100,00 %
28.08.2016 18:14 26,0 C 26,7 C 23,3 C 60 % 0 lf 1013,4 hPa 0,0 l/m 2 min 0 min 309 W/m 29,3 km/h (5 Bft) 100,00 %
28.08.2016 18:16 25,9 C 26,1 C 23,3 C 60 % 0 lf 1013,3 hPa 0,0 l/m 2 min 0 min 304 W/m 20,9 km/h (4 Bft) 97,87 %
28.08.2016 18:18 25,9 C 26,1 C 23,3 C 60 % 0 lf 1013,3 hPa 0,0 l/m 2 min 0 min 290 W/m 12,6 km/h (3 Bft) 100,00 %
28.08.2016 18:20 25,8 C 26,1 C 23,3 C 60 % 0 lf 1013,4 hPa 0,0 l/m 2 min 0 min 281 W/m 23,0 km/h (4 Bft) 97,87 %
28.08.2016 18:22 25,8 C 26,1 C 23,3 C 61 % 0 lf 1013,4 hPa 0,0 l/m 2 min 0 min 266 W/m 18,8 km/h (3 Bft) 97,22 %
28.08.2016 18:24 25,7 C 26,1 C 23,3 C 62 % 0 lf 1013,4 hPa 0,0 l/m 2 min 0 min 259 W/m 18,8 km/h (3 Bft) 100,00 %
28.08.2016 18:26 25,7 C 26,1 C 23,3 C 62 % 0 lf 1013,4 hPa 0,0 l/m 2 min 0 min 249 W/m 27,2 km/h (4 Bft) 100,00 %
28.08.2016 18:28 25,6 C 26,1 C 23,3 C 62 % 0 lf 1013,4 hPa 0,0 l/m 2 min 0 min 278 W/m 27,2 km/h (4 Bft) 100,00 %
28.08.2016 18:30 25,6 C 26,1 C 23,3 C 63 % 0 lf 1013,4 hPa 0,0 l/m 2 min 0 min 267 W/m 14,6 km/h (3 Bft) 100,00 %
28.08.2016 18:32 25,6 C 26,1 C 23,3 C 63 % 0 lf 1013,5 hPa 0,0 l/m 2 min 0 min 253 W/m 27,2 km/h (4 Bft) 100,00 %
28.08.2016 18:34 25,5 C 25,6 C 23,3 C 63 % 0 lf 1013,4 hPa 0,0 l/m 2 min 0 min 242 W/m 23,0 km/h (4 Bft) 100,00 %
28.08.2016 18:36 25,5 C 25,6 C 23,3 C 63 % 0 lf 1013,4 hPa 0,0 l/m 2 min 0 min 239 W/m 14,6 km/h (3 Bft) 100,00 %
28.08.2016 18:38 25,4 C 25,6 C 22,8 C 62 % 0 lf 1013,5 hPa 0,0 l/m 2 min 0 min 151 W/m 16,7 km/h (3 Bft) 100,00 %
28.08.2016 18:40 25,4 C 25,6 C 22,8 C 61 % 0 lf 1013,5 hPa 0,0 l/m 0 min 0 min 93 W/m 25,1 km/h (4 Bft) 98,08 %
28.08.2016 18:42 25,3 C 25,0 C 22,8 C 61 % 0 lf 1013,6 hPa 0,0 l/m 0 min 0 min 111 W/m 18,8 km/h (3 Bft) 97,87 %
28.08.2016 18:44 25,3 C 25,0 C 22,8 C 61 % 0 lf 1013,5 hPa 0,0 l/m 2 min 0 min 220 W/m 23,0 km/h (4 Bft) 100,00 %
28.08.2016 18:46 25,2 C 25,0 C 22,8 C 61 % 0 lf 1013,5 hPa 0,0 l/m 2 min 0 min 219 W/m 14,6 km/h (3 Bft) 92,68 %
28.08.2016 18:48 25,1 C 25,0 C 22,8 C 61 % 0 lf 1013,5 hPa 0,0 l/m 2 min 0 min 204 W/m 23,0 km/h (4 Bft) 100,00 %
28.08.2016 18:50 25,1 C 25,0 C 22,8 C 61 % 0 lf 1013,5 hPa 0,0 l/m 2 min 0 min 179 W/m 25,1 km/h (4 Bft) 100,00 %
28.08.2016 18:52 25,1 C 25,0 C 22,8 C 61 % 0 lf 1013,5 hPa 0,0 l/m 0 min 0 min 116 W/m 18,8 km/h (3 Bft) 97,87 %
28.08.2016 18:54 25,0 C 25,0 C 22,8 C 61 % 0 lf 1013,5 hPa 0,0 l/m 2 min 0 min 118 W/m 25,1 km/h (4 Bft) 97,87 %
28.08.2016 18:56 24,9 C 24,4 C 22,8 C 61 % 0 lf 1013,5 hPa 0,0 l/m 0 min 0 min 106 W/m 25,1 km/h (4 Bft) 97,87 %
28.08.2016 18:58 24,9 C 24,4 C 22,8 C 61 % 0 lf 1013,5 hPa 0,0 l/m 2 min 0 min 176 W/m 23,0 km/h (4 Bft) 100,00 %
28.08.2016 19:00 24,8 C 25,0 C 22,8 C 61 % 0 lf 1013,6 hPa 0,0 l/m 2 min 0 min 181 W/m 18,8 km/h (3 Bft) 100,00 %
28.08.2016 19:02 24,8 C 25,0 C 22,8 C 62 % 0 lf 1013,5 hPa 0,0 l/m 2 min 0 min 178 W/m 12,6 km/h (3 Bft) 100,00 %
28.08.2016 19:04 24,8 C 25,0 C 22,8 C 63 % 0 lf 1013,6 hPa 0,0 l/m 2 min 0 min 190 W/m 23,0 km/h (4 Bft) 93,62 %
28.08.2016 19:06 24,7 C 25,0 C 23,3 C 63 % 0 lf 1013,6 hPa 0,0 l/m 2 min 0 min 193 W/m 18,8 km/h (3 Bft) 98,00 %
28.08.2016 19:08 24,7 C 25,0 C 23,3 C 63 % 0 lf 1013,6 hPa 0,0 l/m 2 min 0 min 190 W/m 23,0 km/h (4 Bft) 100,00 %
28.08.2016 19:10 24,7 C 25,0 C 22,8 C 63 % 0 lf 1013,7 hPa 0,0 l/m 2 min 0 min 179 W/m 29,3 km/h (5 Bft) 93,62 %
28.08.2016 19:12 24,7 C 25,0 C 22,8 C 63 % 0 lf 1013,6 hPa 0,0 l/m 2 min 0 min 153 W/m 25,1 km/h (4 Bft) 89,13 %
28.08.2016 19:14 24,7 C 25,0 C 22,8 C 62 % 0 lf 1013,7 hPa 0,0 l/m 2 min 0 min 136 W/m 23,0 km/h (4 Bft) 95,74 %
28.08.2016 19:16 24,6 C 25,0 C 22,8 C 63 % 0 lf 1013,6 hPa 0,0 l/m 2 min 0 min 125 W/m 14,6 km/h (3 Bft) 93,62 %
28.08.2016 19:18 24,6 C 25,0 C 22,8 C 62 % 0 lf 1013,6 hPa 0,0 l/m 2 min 0 min 110 W/m 20,9 km/h (4 Bft) 97,87 %
28.08.2016 19:20 24,6 C 24,4 C 22,8 C 63 % 0 lf 1013,6 hPa 0,0 l/m 2 min 0 min 117 W/m 18,8 km/h (3 Bft) 91,49 %
28.08.2016 19:22 24,5 C 24,4 C 22,8 C 63 % 0 lf 1013,6 hPa 0,0 l/m 2 min 0 min 111 W/m 18,8 km/h (3 Bft) 93,62 %
28.08.2016 19:24 24,4 C 24,4 C 22,8 C 63 % 0 lf 1013,7 hPa 0,0 l/m 2 min 0 min 104 W/m 25,1 km/h (4 Bft) 97,83 %
28.08.2016 19:26 24,4 C 24,4 C 22,8 C 63 % 0 lf 1013,7 hPa 0,0 l/m 2 min 0 min 94 W/m 23,0 km/h (4 Bft) 93,62 %
28.08.2016 19:28 24,4 C 24,4 C 22,2 C 63 % 0 lf 1013,7 hPa 0,0 l/m 2 min 0 min 88 W/m 20,9 km/h (4 Bft) 91,49 %
28.08.2016 19:30 24,3 C 24,4 C 22,2 C 63 % 0 lf 1013,7 hPa 0,0 l/m 2 min 0 min 87 W/m 18,8 km/h (3 Bft) 93,62 %
28.08.2016 19:32 24,3 C 24,4 C 22,2 C 64 % 0 lf 1013,7 hPa 0,0 l/m 2 min 0 min 79 W/m 16,7 km/h (3 Bft) 91,49 %
28.08.2016 19:34 24,3 C 23,9 C 22,2 C 64 % 0 lf 1013,7 hPa 0,0 l/m 2 min 0 min 71 W/m 12,6 km/h (3 Bft) 91,30 %
28.08.2016 19:36 24,2 C 23,9 C 22,2 C 64 % 0 lf 1013,7 hPa 0,0 l/m 2 min 0 min 65 W/m 10,5 km/h (2 Bft) 94,74 %
28.08.2016 19:38 24,2 C 23,9 C 21,7 C 65 % 0 lf 1013,8 hPa 0,0 l/m 2 min 0 min 59 W/m 16,7 km/h (3 Bft) 91,49 %
28.08.2016 19:40 24,1 C 23,9 C 21,7 C 65 % 0 lf 1013,9 hPa 0,0 l/m 0 min 0 min 54 W/m 27,2 km/h (4 Bft) 95,74 %
28.08.2016 19:42 24,1 C 23,9 C 21,7 C 65 % 0 lf 1013,9 hPa 0,0 l/m 0 min 0 min 51 W/m 16,7 km/h (3 Bft) 93,62 %
28.08.2016 19:44 24,1 C 23,9 C 21,7 C 64 % 0 lf 1013,9 hPa 0,0 l/m 0 min 0 min 47 W/m 20,9 km/h (4 Bft) 93,62 %
28.08.2016 19:46 23,9 C 23,3 C 21,7 C 64 % 0 lf 1013,9 hPa 0,0 l/m 0 min 0 min 43 W/m 20,9 km/h (4 Bft) 93,62 %
28.08.2016 19:48 23,9 C 23,3 C 21,1 C 64 % 0 lf 1013,9 hPa 0,0 l/m 0 min 0 min 42 W/m 16,7 km/h (3 Bft) 95,65 %
28.08.2016 19:50 23,9 C 23,3 C 21,1 C 64 % 0 lf 1014,0 hPa 0,0 l/m 0 min 0 min 40 W/m 12,6 km/h (3 Bft) 93,62 %
28.08.2016 19:52 23,8 C 23,3 C 21,1 C 64 % 0 lf 1014,0 hPa 0,0 l/m 2 min 0 min 40 W/m 12,6 km/h (3 Bft) 91,49 %
28.08.2016 19:54 23,8 C 22,8 C 21,1 C 65 % 0 lf 1014,0 hPa 0,0 l/m 2 min 0 min 40 W/m 12,6 km/h (3 Bft) 95,74 %
28.08.2016 19:56 23,7 C 22,8 C 21,1 C 64 % 0 lf 1014,0 hPa 0,0 l/m 2 min 0 min 40 W/m 20,9 km/h (4 Bft) 97,87 %
28.08.2016 19:58 23,7 C 22,8 C 21,1 C 64 % 0 lf 1014,0 hPa 0,0 l/m 2 min 0 min 39 W/m 14,6 km/h (3 Bft) 97,87 %
28.08.2016 20:00 23,6 C 22,8 C 21,1 C 65 % 0 lf 1014,0 hPa 0,0 l/m 2 min 0 min 36 W/m 25,1 km/h (4 Bft) 91,49 %
28.08.2016 20:02 23,6 C 22,8 C 21,1 C 64 % 0 lf 1014,0 hPa 0,0 l/m 2 min 0 min 32 W/m 23,0 km/h (4 Bft) 95,65 %
28.08.2016 20:04 23,5 C 22,8 C 21,1 C 64 % 0 lf 1014,1 hPa 0,0 l/m 2 min 0 min 28 W/m 14,6 km/h (3 Bft) 95,74 %
28.08.2016 20:06 23,4 C 22,8 C 21,1 C 64 % 0 lf 1014,0 hPa 0,0 l/m 2 min 0 min 27 W/m 14,6 km/h (3 Bft) 95,74 %
28.08.2016 20:08 23,4 C 22,8 C 20,6 C 64 % 0 lf 1014,1 hPa 0,0 l/m 2 min 0 min 26 W/m 20,9 km/h (4 Bft) 95,74 %
28.08.2016 20:10 23,3 C 22,8 C 20,6 C 64 % 0 lf 1014,0 hPa 0,0 l/m 2 min 0 min 26 W/m 16,7 km/h (3 Bft) 95,74 %
28.08.2016 20:12 23,3 C 22,8 C 20,6 C 64 % 0 lf 1014,0 hPa 0,0 l/m 2 min 0 min 25 W/m 12,6 km/h (3 Bft) 94,23 %
28.08.2016 20:14 23,3 C 22,2 C 20,6 C 64 % 0 lf 1014,0 hPa 0,0 l/m 2 min 0 min 21 W/m 14,6 km/h (3 Bft) 95,74 %
28.08.2016 20:16 23,2 C 22,2 C 20,6 C 64 % 0 lf 1014,0 hPa 0,0 l/m 0 min 0 min 18 W/m 14,6 km/h (3 Bft) 95,12 %
28.08.2016 20:18 23,2 C 22,2 C 20,6 C 65 % 0 lf 1014,1 hPa 0,0 l/m 0 min 0 min 15 W/m 8,4 km/h (2 Bft) 95,74 %
28.08.2016 20:20 23,1 C 22,2 C 20,0 C 65 % 0 lf 1014,1 hPa 0,0 l/m 0 min 0 min 12 W/m 8,4 km/h (2 Bft) 92,45 %
28.08.2016 20:22 23,1 C 22,2 C 20,0 C 65 % 0 lf 1014,1 hPa 0,0 l/m 0 min 0 min 11 W/m 12,6 km/h (3 Bft) 95,12 %
28.08.2016 20:24 23,0 C 22,2 C 20,0 C 65 % 0 lf 1014,2 hPa 0,0 l/m 0 min 0 min 11 W/m 10,5 km/h (2 Bft) 95,65 %
28.08.2016 20:26 22,9 C 21,7 C 20,0 C 65 % 0 lf 1014,1 hPa 0,0 l/m 0 min 0 min 11 W/m 14,6 km/h (3 Bft) 95,74 %
28.08.2016 20:28 22,9 C 21,7 C 20,0 C 65 % 0 lf 1014,1 hPa 0,0 l/m 0 min 0 min 9 W/m 14,6 km/h (3 Bft) 95,74 %
28.08.2016 20:30 22,9 C 21,7 C 19,4 C 65 % 0 lf 1014,1 hPa 0,0 l/m 0 min 0 min 9 W/m 8,4 km/h (2 Bft) 93,62 %
28.08.2016 20:32 22,8 C 21,7 C 19,4 C 65 % 0 lf 1014,1 hPa 0,0 l/m 0 min 0 min 8 W/m 6,3 km/h (2 Bft) 98,15 %
28.08.2016 20:34 22,8 C 21,7 C 19,4 C 65 % 0 lf 1014,2 hPa 0,0 l/m 0 min 0 min 7 W/m 6,3 km/h (2 Bft) 97,83 %
28.08.2016 20:36 22,8 C 21,1 C 18,9 C 65 % 0 lf 1014,1 hPa 0,0 l/m 0 min 0 min 7 W/m 6,3 km/h (2 Bft) 98,00 %
28.08.2016 20:38 22,7 C 21,1 C 18,9 C 65 % 0 lf 1014,2 hPa 0,0 l/m 0 min 0 min 6 W/m 4,2 km/h (1 Bft) 97,87 %
28.08.2016 20:40 22,7 C 21,1 C 18,9 C 66 % 0 lf 1014,2 hPa 0,0 l/m 0 min 0 min 5 W/m 4,2 km/h (1 Bft) 97,87 %
28.08.2016 20:42 22,7 C 21,1 C 18,3 C 66 % 0 lf 1014,2 hPa 0,0 l/m 0 min 0 min 5 W/m 8,4 km/h (2 Bft) 97,87 %
28.08.2016 20:44 22,7 C 21,1 C 18,3 C 66 % 0 lf 1014,2 hPa 0,0 l/m 0 min 0 min 1 W/m 4,2 km/h (1 Bft) 95,65 %
28.08.2016 20:46 22,6 C 20,6 C 18,3 C 66 % 0 lf 1014,2 hPa 0,0 l/m 0 min 0 min 0 W/m 6,3 km/h (2 Bft) 97,87 %
28.08.2016 20:48 22,6 C 20,6 C 18,3 C 66 % 0 lf 1014,3 hPa 0,0 l/m 0 min 0 min 0 W/m 6,3 km/h (2 Bft) 95,74 %
28.08.2016 20:50 22,6 C 20,6 C 18,3 C 66 % 0 lf 1014,3 hPa 0,0 l/m 0 min 0 min 0 W/m 6,3 km/h (2 Bft) 97,87 %
28.08.2016 20:52 22,5 C 20,6 C 18,3 C 66 % 0 lf 1014,3 hPa 0,0 l/m 0 min 0 min 0 W/m 6,3 km/h (2 Bft) 97,87 %
28.08.2016 20:54 22,4 C 20,6 C 18,3 C 67 % 0 lf 1014,3 hPa 0,0 l/m 0 min 0 min 0 W/m 6,3 km/h (2 Bft) 97,87 %
28.08.2016 20:56 22,4 C 20,6 C 18,3 C 67 % 0 lf 1014,3 hPa 0,0 l/m 0 min 0 min 0 W/m 6,3 km/h (2 Bft) 95,65 %
28.08.2016 20:58 22,3 C 20,6 C 17,8 C 67 % 0 lf 1014,4 hPa 0,0 l/m 0 min 0 min 0 W/m 8,4 km/h (2 Bft) 97,87 %
28.08.2016 21:00 22,3 C 20,0 C 17,8 C 67 % 0 lf 1014,4 hPa 0,0 l/m 0 min 0 min 0 W/m 4,2 km/h (1 Bft) 100,00 %
28.08.2016 21:02 22,2 C 20,0 C 17,8 C 67 % 0 lf 1014,4 hPa 0,0 l/m 0 min 0 min 0 W/m 4,2 km/h (1 Bft) 97,87 %
28.08.2016 21:04 22,2 C 20,0 C 17,8 C 67 % 0 lf 1014,4 hPa 0,0 l/m 0 min 0 min 0 W/m 6,3 km/h (2 Bft) 97,87 %
28.08.2016 21:06 22,1 C 20,0 C 17,8 C 67 % 0 lf 1014,5 hPa 0,0 l/m 0 min 0 min 0 W/m 4,2 km/h (1 Bft) 100,00 %
28.08.2016 21:08 22,1 C 20,0 C 17,8 C 67 % 0 lf 1014,5 hPa 0,0 l/m 0 min 0 min 0 W/m 4,2 km/h (1 Bft) 97,83 %
28.08.2016 21:10 22,0 C 20,0 C 17,8 C 68 % 0 lf 1014,6 hPa 0,0 l/m 0 min 0 min 0 W/m 6,3 km/h (2 Bft) 97,87 %
28.08.2016 21:12 22,0 C 20,0 C 17,8 C 68 % 0 lf 1014,6 hPa 0,0 l/m 0 min 0 min 0 W/m 8,4 km/h (2 Bft) 95,74 %
28.08.2016 21:14 21,9 C 20,0 C 17,8 C 68 % 0 lf 1014,6 hPa 0,0 l/m 0 min 0 min 0 W/m 6,3 km/h (2 Bft) 93,62 %
28.08.2016 21:16 21,9 C 20,0 C 17,8 C 68 % 0 lf 1014,7 hPa 0,0 l/m 0 min 0 min 0 W/m 8,4 km/h (2 Bft) 97,87 %
28.08.2016 21:18 21,8 C 20,0 C 17,8 C 69 % 0 lf 1014,6 hPa 0,0 l/m 0 min 0 min 0 W/m 10,5 km/h (2 Bft) 95,74 %
28.08.2016 21:20 21,7 C 20,0 C 17,8 C 69 % 0 lf 1014,7 hPa 0,0 l/m 0 min 0 min 0 W/m 10,5 km/h (2 Bft) 93,48 %
28.08.2016 21:22 21,7 C 20,0 C 18,3 C 69 % 0 lf 1014,7 hPa 0,0 l/m 0 min 0 min 0 W/m 12,6 km/h (3 Bft) 97,87 %
28.08.2016 21:24 21,6 C 20,0 C 18,3 C 69 % 0 lf 1014,7 hPa 0,0 l/m 0 min 0 min 0 W/m 10,5 km/h (2 Bft) 97,87 %
28.08.2016 21:26 21,6 C 20,6 C 18,3 C 69 % 0 lf 1014,7 hPa 0,0 l/m 0 min 0 min 0 W/m 10,5 km/h (2 Bft) 95,74 %
28.08.2016 21:28 21,4 C 20,6 C 18,3 C 69 % 0 lf 1014,7 hPa 0,0 l/m 0 min 0 min 0 W/m 10,5 km/h (2 Bft) 95,74 %
28.08.2016 21:30 21,4 C 20,6 C 18,3 C 69 % 0 lf 1014,8 hPa 0,0 l/m 0 min 0 min 0 W/m 10,5 km/h (2 Bft) 97,83 %
28.08.2016 21:32 21,4 C 20,6 C 18,3 C 69 % 0 lf 1014,8 hPa 0,0 l/m 0 min 0 min 0 W/m 8,4 km/h (2 Bft) 97,87 %
28.08.2016 21:34 21,3 C 20,6 C 18,3 C 69 % 0 lf 1014,7 hPa 0,0 l/m 0 min 0 min 0 W/m 8,4 km/h (2 Bft) 95,74 %
28.08.2016 21:36 21,3 C 20,6 C 18,3 C 69 % 0 lf 1014,7 hPa 0,0 l/m 0 min 0 min 0 W/m 6,3 km/h (2 Bft) 97,14 %
28.08.2016 21:38 21,2 C 20,6 C 18,3 C 69 % 0 lf 1014,7 hPa 0,0 l/m 0 min 0 min 0 W/m 10,5 km/h (2 Bft) 97,87 %
28.08.2016 21:40 21,2 C 20,6 C 18,3 C 69 % 0 lf 1014,7 hPa 0,0 l/m 0 min 0 min 0 W/m 8,4 km/h (2 Bft) 97,87 %
28.08.2016 21:42 21,2 C 20,0 C 18,3 C 70 % 0 lf 1014,7 hPa 0,0 l/m 0 min 0 min 0 W/m 8,4 km/h (2 Bft) 97,87 %
28.08.2016 21:44 21,1 C 20,0 C 17,8 C 70 % 0 lf 1014,7 hPa 0,0 l/m 0 min 0 min 0 W/m 8,4 km/h (2 Bft) 100,00 %
28.08.2016 21:46 21,1 C 20,0 C 17,8 C 70 % 0 lf 1014,8 hPa 0,0 l/m 0 min 0 min 0 W/m 6,3 km/h (2 Bft) 97,83 %
28.08.2016 21:48 21,1 C 20,0 C 17,8 C 70 % 0 lf 1014,8 hPa 0,0 l/m 0 min 0 min 0 W/m 6,3 km/h (2 Bft) 100,00 %
28.08.2016 21:50 21,0 C 20,0 C 17,2 C 70 % 0 lf 1014,7 hPa 0,0 l/m 0 min 0 min 0 W/m 6,3 km/h (2 Bft) 95,74 %
28.08.2016 21:52 21,0 C 20,0 C 17,2 C 70 % 0 lf 1014,7 hPa 0,0 l/m 0 min 0 min 0 W/m 6,3 km/h (2 Bft) 93,62 %
28.08.2016 21:54 21,0 C 19,4 C 17,2 C 70 % 0 lf 1014,8 hPa 0,0 l/m 0 min 0 min 0 W/m 6,3 km/h (2 Bft) 97,87 %
28.08.2016 21:56 20,9 C 19,4 C 17,2 C 70 % 0 lf 1014,8 hPa 0,0 l/m 0 min 0 min 0 W/m 6,3 km/h (2 Bft) 95,74 %
28.08.2016 21:58 20,9 C 19,4 C 17,2 C 70 % 0 lf 1014,8 hPa 0,0 l/m 0 min 0 min 0 W/m 8,4 km/h (2 Bft) 95,65 %
28.08.2016 22:00 20,9 C 19,4 C 17,2 C 70 % 0 lf 1014,9 hPa 0,0 l/m 0 min 0 min 0 W/m 8,4 km/h (2 Bft) 97,87 %
28.08.2016 22:02 20,8 C 19,4 C 17,2 C 70 % 0 lf 1014,9 hPa 0,0 l/m 0 min 0 min 0 W/m 8,4 km/h (2 Bft) 93,62 %
28.08.2016 22:04 20,8 C 19,4 C 16,7 C 70 % 0 lf 1014,9 hPa 0,0 l/m 0 min 0 min 0 W/m 6,3 km/h (2 Bft) 97,87 %
28.08.2016 22:06 20,8 C 18,9 C 16,7 C 70 % 0 lf 1014,8 hPa 0,0 l/m 0 min 0 min 0 W/m 10,5 km/h (2 Bft) 96,36 %
28.08.2016 22:08 20,8 C 18,9 C 16,7 C 70 % 0 lf 1014,9 hPa 0,0 l/m 0 min 0 min 0 W/m 6,3 km/h (2 Bft) 97,83 %
28.08.2016 22:10 20,7 C 18,9 C 16,7 C 70 % 0 lf 1014,9 hPa 0,0 l/m 0 min 0 min 0 W/m 6,3 km/h (2 Bft) 95,74 %
28.08.2016 22:12 20,7 C 18,9 C 16,7 C 70 % 0 lf 1014,9 hPa 0,0 l/m 0 min 0 min 0 W/m 6,3 km/h (2 Bft) 95,74 %
28.08.2016 22:14 20,7 C 18,9 C 16,7 C 71 % 0 lf 1015,0 hPa 0,0 l/m 0 min 0 min 0 W/m 6,3 km/h (2 Bft) 97,87 %
28.08.2016 22:16 20,6 C 18,9 C 16,7 C 71 % 0 lf 1015,0 hPa 0,0 l/m 0 min 0 min 0 W/m 6,3 km/h (2 Bft) 93,62 %
28.08.2016 22:18 20,6 C 18,9 C 16,7 C 71 % 0 lf 1015,0 hPa 0,0 l/m 0 min 0 min 0 W/m 6,3 km/h (2 Bft) 91,49 %
28.08.2016 22:20 20,5 C 18,9 C 16,7 C 71 % 0 lf 1015,0 hPa 0,0 l/m 0 min 0 min 0 W/m 6,3 km/h (2 Bft) 95,65 %
28.08.2016 22:22 20,4 C 18,9 C 16,7 C 71 % 0 lf 1015,0 hPa 0,0 l/m 0 min 0 min 0 W/m 10,5 km/h (2 Bft) 97,87 %
28.08.2016 22:24 20,4 C 18,9 C 16,7 C 71 % 0 lf 1015,1 hPa 0,0 l/m 0 min 0 min 0 W/m 8,4 km/h (2 Bft) 97,87 %
28.08.2016 22:26 20,4 C 18,9 C 17,2 C 72 % 0 lf 1015,1 hPa 0,0 l/m 0 min 0 min 0 W/m 20,9 km/h (4 Bft) 95,74 %
28.08.2016 22:28 20,3 C 19,4 C 17,2 C 72 % 0 lf 1015,1 hPa 0,0 l/m 0 min 0 min 0 W/m 16,7 km/h (3 Bft) 97,87 %
28.08.2016 22:30 20,3 C 19,4 C 17,2 C 72 % 0 lf 1015,2 hPa 0,0 l/m 0 min 0 min 0 W/m 10,5 km/h (2 Bft) 97,87 %
28.08.2016 22:32 20,2 C 19,4 C 17,8 C 72 % 0 lf 1015,1 hPa 0,0 l/m 0 min 0 min 0 W/m 14,6 km/h (3 Bft) 93,62 %
28.08.2016 22:34 20,2 C 19,4 C 17,8 C 72 % 0 lf 1015,3 hPa 0,0 l/m 0 min 0 min 0 W/m 8,4 km/h (2 Bft) 93,62 %
28.08.2016 22:36 20,1 C 19,4 C 17,8 C 72 % 0 lf 1015,3 hPa 0,0 l/m 0 min 0 min 0 W/m 16,7 km/h (3 Bft) 97,37 %
28.08.2016 22:38 20,1 C 19,4 C 17,8 C 73 % 0 lf 1015,3 hPa 0,0 l/m 0 min 0 min 0 W/m 20,9 km/h (4 Bft) 87,23 %
28.08.2016 22:40 20,1 C 19,4 C 17,8 C 73 % 0 lf 1015,3 hPa 0,0 l/m 0 min 0 min 0 W/m 12,6 km/h (3 Bft) 95,74 %
28.08.2016 22:42 20,1 C 19,4 C 17,8 C 73 % 0 lf 1015,3 hPa 0,0 l/m 0 min 0 min 0 W/m 12,6 km/h (3 Bft) 95,74 %
28.08.2016 22:44 20,1 C 19,4 C 17,8 C 73 % 0 lf 1015,3 hPa 0,0 l/m 0 min 0 min 0 W/m 12,6 km/h (3 Bft) 97,83 %
28.08.2016 22:46 20,0 C 19,4 C 17,8 C 74 % 0 lf 1015,3 hPa 0,0 l/m 0 min 0 min 0 W/m 14,6 km/h (3 Bft) 95,74 %
28.08.2016 22:48 20,0 C 19,4 C 17,8 C 74 % 0 lf 1015,3 hPa 0,0 l/m 0 min 0 min 0 W/m 14,6 km/h (3 Bft) 95,74 %
28.08.2016 22:50 20,0 C 19,4 C 17,8 C 74 % 0 lf 1015,3 hPa 0,0 l/m 0 min 0 min 0 W/m 10,5 km/h (2 Bft) 97,87 %
28.08.2016 22:52 20,0 C 19,4 C 17,8 C 74 % 0 lf 1015,3 hPa 0,0 l/m 0 min 0 min 0 W/m 14,6 km/h (3 Bft) 95,74 %
28.08.2016 22:54 20,0 C 19,4 C 17,8 C 74 % 0 lf 1015,4 hPa 0,0 l/m 0 min 0 min 0 W/m 8,4 km/h (2 Bft) 97,87 %
28.08.2016 22:56 19,9 C 19,4 C 17,8 C 74 % 0 lf 1015,4 hPa 0,0 l/m 0 min 0 min 0 W/m 12,6 km/h (3 Bft) 93,62 %
28.08.2016 22:58 19,9 C 19,4 C 17,8 C 74 % 0 lf 1015,3 hPa 0,0 l/m 0 min 0 min 0 W/m 12,6 km/h (3 Bft) 95,65 %
28.08.2016 23:00 19,9 C 19,4 C 17,2 C 74 % 0 lf 1015,3 hPa 0,0 l/m 0 min 0 min 0 W/m 6,3 km/h (2 Bft) 95,74 %
28.08.2016 23:02 19,9 C 19,4 C 17,2 C 74 % 0 lf 1015,3 hPa 0,0 l/m 0 min 0 min 0 W/m 6,3 km/h (2 Bft) 96,23 %
28.08.2016 23:04 19,9 C 18,9 C 17,2 C 75 % 0 lf 1015,3 hPa 0,0 l/m 0 min 0 min 0 W/m 6,3 km/h (2 Bft) 95,74 %
28.08.2016 23:06 19,9 C 18,9 C 17,2 C 75 % 0 lf 1015,3 hPa 0,0 l/m 0 min 0 min 0 W/m 8,4 km/h (2 Bft) 97,83 %
28.08.2016 23:08 19,9 C 18,9 C 17,2 C 74 % 0 lf 1015,3 hPa 0,0 l/m 0 min 0 min 0 W/m 6,3 km/h (2 Bft) 95,74 %
28.08.2016 23:10 19,8 C 18,9 C 17,2 C 75 % 0 lf 1015,3 hPa 0,0 l/m 0 min 0 min 0 W/m 8,4 km/h (2 Bft) 91,49 %
28.08.2016 23:12 19,8 C 18,9 C 17,2 C 75 % 0 lf 1015,4 hPa 0,0 l/m 0 min 0 min 0 W/m 6,3 km/h (2 Bft) 91,49 %
28.08.2016 23:14 19,8 C 18,9 C 17,2 C 75 % 0 lf 1015,3 hPa 0,0 l/m 0 min 0 min 0 W/m 4,2 km/h (1 Bft) 97,87 %
28.08.2016 23:16 19,8 C 18,9 C 17,2 C 75 % 0 lf 1015,3 hPa 0,0 l/m 0 min 0 min 0 W/m 6,3 km/h (2 Bft) 95,12 %
28.08.2016 23:18 19,8 C 18,9 C 16,7 C 75 % 0 lf 1015,3 hPa 0,0 l/m 0 min 0 min 0 W/m 6,3 km/h (2 Bft) 95,74 %
28.08.2016 23:20 19,8 C 18,9 C 16,7 C 75 % 0 lf 1015,3 hPa 0,0 l/m 0 min 0 min 0 W/m 4,2 km/h (1 Bft) 92,31 %
28.08.2016 23:22 19,7 C 18,9 C 16,7 C 75 % 0 lf 1015,3 hPa 0,0 l/m 0 min 0 min 0 W/m 6,3 km/h (2 Bft) 97,87 %
28.08.2016 23:24 19,7 C 18,9 C 16,7 C 75 % 0 lf 1015,3 hPa 0,0 l/m 0 min 0 min 0 W/m 4,2 km/h (1 Bft) 97,87 %
28.08.2016 23:26 19,7 C 18,9 C 16,7 C 75 % 0 lf 1015,3 hPa 0,0 l/m 0 min 0 min 0 W/m 4,2 km/h (1 Bft) 97,87 %
28.08.2016 23:28 19,7 C 18,9 C 16,7 C 75 % 0 lf 1015,3 hPa 0,0 l/m 0 min 0 min 0 W/m 6,3 km/h (2 Bft) 97,87 %
28.08.2016 23:30 19,7 C 18,3 C 16,7 C 75 % 0 lf 1015,4 hPa 0,0 l/m 0 min 0 min 0 W/m 6,3 km/h (2 Bft) 97,83 %
28.08.2016 23:32 19,6 C 18,3 C 16,1 C 75 % 0 lf 1015,3 hPa 0,0 l/m 0 min 0 min 0 W/m 4,2 km/h (1 Bft) 95,83 %
28.08.2016 23:34 19,6 C 18,3 C 16,1 C 75 % 0 lf 1015,3 hPa 0,0 l/m 0 min 0 min 0 W/m 8,4 km/h (2 Bft) 97,87 %
28.08.2016 23:36 19,6 C 18,3 C 16,1 C 75 % 0 lf 1015,4 hPa 0,0 l/m 0 min 0 min 0 W/m 4,2 km/h (1 Bft) 94,00 %
28.08.2016 23:38 19,6 C 18,3 C 16,1 C 76 % 0 lf 1015,3 hPa 0,0 l/m 0 min 0 min 0 W/m 6,3 km/h (2 Bft) 100,00 %
28.08.2016 23:40 19,5 C 18,3 C 16,1 C 76 % 0 lf 1015,4 hPa 0,0 l/m 0 min 0 min 0 W/m 4,2 km/h (1 Bft) 93,62 %
28.08.2016 23:42 19,5 C 18,3 C 16,1 C 76 % 0 lf 1015,4 hPa 0,0 l/m 0 min 0 min 0 W/m 6,3 km/h (2 Bft) 97,87 %
28.08.2016 23:44 19,4 C 18,3 C 16,1 C 76 % 0 lf 1015,4 hPa 0,0 l/m 0 min 0 min 0 W/m 6,3 km/h (2 Bft) 93,62 %
28.08.2016 23:46 19,4 C 18,3 C 16,1 C 76 % 0 lf 1015,4 hPa 0,0 l/m 0 min 0 min 0 W/m 6,3 km/h (2 Bft) 95,74 %
28.08.2016 23:48 19,4 C 17,8 C 16,1 C 76 % 0 lf 1015,4 hPa 0,0 l/m 0 min 0 min 0 W/m 6,3 km/h (2 Bft) 95,74 %
28.08.2016 23:50 19,3 C 17,8 C 16,1 C 77 % 0 lf 1015,4 hPa 0,0 l/m 0 min 0 min 0 W/m 4,2 km/h (1 Bft) 91,49 %
28.08.2016 23:52 19,3 C 17,8 C 15,6 C 77 % 0 lf 1015,4 hPa 0,0 l/m 0 min 0 min 0 W/m 4,2 km/h (1 Bft) 97,83 %
28.08.2016 23:54 19,3 C 17,8 C 15,6 C 77 % 0 lf 1015,4 hPa 0,0 l/m 0 min 0 min 0 W/m 6,3 km/h (2 Bft) 95,74 %
28.08.2016 23:56 19,2 C 17,8 C 15,6 C 77 % 0 lf 1015,4 hPa 0,0 l/m 0 min 0 min 0 W/m 4,2 km/h (1 Bft) 97,87 %
28.08.2016 23:58 19,2 C 17,8 C 15,6 C 77 % 0 lf 1015,5 hPa 0,0 l/m 0 min 0 min 0 W/m 6,3 km/h (2 Bft) 95,74 %
_ Min-Zeit 07:20 23:48 23:52 11:52 01:28 10:22 - - - - 05:56 11:50
Minimum _ 19,1 C 17,8 C 15,6 C 56 % 0 lf 1010,6 hPa - - - - 0,0 km/h (0 Bft) 87,23 %
_ Max-Zeit 11:46 11:26 11:26 07:56 00:00 23:58 00:00 07:24 00:00 13:24 00:00 00:06
Maximum _ 31,1 C 40,6 C 34,4 C 92 % 15 lf 1015,5 hPa 2,0 l/m 2 min 2 min 940 W/m 52,3 km/h
S-SW (7 Bft)
100,00 %
Durchschnitt _ 23,9 C 25,5 C 22,2 C 74 % 1 lf 1012,4 hPa #9,2 l/m #11:20 h #1:27 h 365 W/m 15,1 km/h (3 Bft) 96,31 %
© 2016 W. Hausmann